| time (UTC) | temp F | wind direction | speed MPH | gust MPH | rain 1hr in | rain 24hr in | rain mn in | humidity % | barometer mb |
| 20260903052356 | 56 | 181 | 1.0 | 3.0 | 0.00 | 0.00 | 0.00 | 100 | 961.6 |
| 20260903052153 | 56 | 0 | 0.0 | 2.0 | 0.00 | 0.00 | 0.00 | 100 | 961.6 |
| 20260903051950 | 56 | 175 | 1.0 | 3.0 | 0.00 | 0.00 | 0.00 | 100 | 961.6 |
| 20260903051849 | 56 | 170 | 1.0 | 3.0 | 0.00 | 0.00 | 0.00 | 100 | 961.6 |
| 20260903051654 | 56 | 154 | 1.0 | 2.0 | 0.00 | 0.00 | 0.00 | 100 | 961.5 |
| 20260903051451 | 56 | 130 | 1.0 | 2.0 | 0.00 | 0.00 | 0.00 | 100 | 961.6 |
| 20260903051350 | 56 | 128 | 1.0 | 1.0 | 0.00 | 0.00 | 0.00 | 100 | 961.6 |
| 20260903051248 | 56 | 130 | 0.0 | 1.0 | 0.00 | 0.00 | 0.00 | 100 | 961.5 |
| 20260903051045 | 56 | 0 | 0.0 | 1.0 | 0.00 | 0.00 | 0.00 | 100 | 961.7 |
| 20260903050841 | 56 | 0 | 0.0 | 2.0 | 0.00 | 0.00 | 0.00 | 100 | 961.6 |
| 20260903050741 | 56 | 0 | 0.0 | 2.0 | 0.00 | 0.00 | 0.00 | 100 | 961.6 |
| 20260903050639 | 55 | 0 | 0.0 | 2.0 | 0.00 | 0.00 | 0.00 | 100 | 961.6 |
| 20260903050436 | 55 | 0 | 0.0 | 2.0 | 0.00 | 0.00 | 0.00 | 100 | 961.6 |
| 20260903050232 | 55 | 0 | 0.0 | 2.0 | 0.00 | 0.00 | 0.00 | 100 | 961.6 |
| 20260903050118 | 55 | 0 | 1.0 | 2.0 | 0.00 | 0.00 | 0.00 | 100 | 961.5 |
| 20260903050016 | 54 | 113 | 1.0 | 2.0 | 0.00 | 0.00 | 0.00 | 100 | 961.5 |
| 20260903045813 | 55 | 81 | 1.0 | 2.0 | 0.00 | 0.00 | 0.00 | 100 | 961.5 |
| 20260903045609 | 55 | 0 | 0.0 | 1.0 | 0.00 | 0.00 | 0.00 | 100 | 961.6 |
| 20260903045509 | 55 | 0 | 0.0 | 1.0 | 0.00 | 0.00 | 0.00 | 100 | 961.4 |
| 20260903045406 | 55 | 0 | 0.0 | 1.0 | 0.00 | 0.00 | 0.00 | 100 | 961.4 |
| 20260903045202 | 54 | 0 | 0.0 | 1.0 | 0.00 | 0.00 | 0.00 | 100 | 961.5 |
| 20260903045000 | 54 | 0 | 0.0 | 1.0 | 0.00 | 0.00 | 0.00 | 100 | 961.4 |
| 20260903044859 | 54 | 145 | 1.0 | 1.0 | 0.00 | 0.00 | 0.00 | 100 | 961.5 |
| 20260903044757 | 54 | 141 | 1.0 | 2.0 | 0.00 | 0.00 | 0.00 | 100 | 961.4 |
| 20260903044554 | 54 | 130 | 1.0 | 2.0 | 0.00 | 0.00 | 0.00 | 100 | 961.4 |
| 20260903044351 | 55 | 0 | 0.0 | 2.0 | 0.00 | 0.00 | 0.00 | 100 | 961.5 |
| 20260903044250 | 54 | 0 | 0.0 | 1.0 | 0.00 | 0.00 | 0.00 | 100 | 961.4 |
| 20260903044148 | 54 | 0 | 0.0 | 1.0 | 0.00 | 0.00 | 0.00 | 100 | 961.4 |
| 20260903043944 | 54 | 0 | 0.0 | 1.0 | 0.00 | 0.00 | 0.00 | 100 | 961.4 |
| 20260903043741 | 54 | 0 | 0.0 | 2.0 | 0.00 | 0.00 | 0.00 | 100 | 961.5 |
| 20260903043640 | 54 | 0 | 0.0 | 2.0 | 0.00 | 0.00 | 0.00 | 100 | 961.5 |
| 20260903043537 | 53 | 270 | 1.0 | 2.0 | 0.00 | 0.00 | 0.00 | 100 | 961.5 |
| 20260903043334 | 53 | 266 | 1.0 | 2.0 | 0.00 | 0.00 | 0.00 | 100 | 961.5 |
| 20260903043131 | 53 | 0 | 0.0 | 2.0 | 0.00 | 0.00 | 0.00 | 100 | 961.5 |
| 20260903043031 | 53 | 263 | 0.0 | 2.0 | 0.00 | 0.00 | 0.00 | 100 | 961.4 |
| 20260903042928 | 53 | 0 | 0.0 | 2.0 | 0.00 | 0.00 | 0.00 | 100 | 961.3 |
| 20260903042725 | 52 | 261 | 1.0 | 2.0 | 0.00 | 0.00 | 0.00 | 100 | 961.4 |
| 20260903042522 | 52 | 246 | 1.0 | 3.0 | 0.00 | 0.00 | 0.00 | 100 | 961.4 |
| 20260903042421 | 52 | 249 | 1.0 | 3.0 | 0.00 | 0.00 | 0.00 | 100 | 961.3 |
| 20260903042319 | 52 | 241 | 0.0 | 3.0 | 0.00 | 0.00 | 0.00 | 100 | 961.4 |
| 20260903042115 | 52 | 259 | 1.0 | 3.0 | 0.00 | 0.00 | 0.00 | 100 | 961.2 |
| 20260903041912 | 52 | 265 | 1.0 | 4.0 | 0.00 | 0.00 | 0.00 | 100 | 961.3 |
| 20260903041811 | 52 | 268 | 2.0 | 5.0 | 0.00 | 0.00 | 0.00 | 100 | 961.2 |
| 20260903041709 | 52 | 273 | 3.0 | 7.0 | 0.00 | 0.00 | 0.00 | 100 | 961.2 |
| 20260903041506 | 52 | 287 | 4.0 | 7.0 | 0.00 | 0.00 | 0.00 | 100 | 961.2 |
| 20260903041303 | 52 | 291 | 4.0 | 7.0 | 0.00 | 0.00 | 0.00 | 100 | 961.2 |
| 20260903041202 | 52 | 291 | 4.0 | 5.0 | 0.00 | 0.00 | 0.00 | 100 | 961.2 |
| 20260903041059 | 52 | 293 | 4.0 | 5.0 | 0.00 | 0.00 | 0.00 | 100 | 961.2 |
| 20260903040856 | 52 | 295 | 4.0 | 6.0 | 0.00 | 0.00 | 0.00 | 100 | 961.2 |
| 20260903040654 | 51 | 290 | 4.0 | 6.0 | 0.00 | 0.00 | 0.00 | 100 | 961.1 |
| 20260903040553 | 52 | 283 | 3.0 | 6.0 | 0.00 | 0.00 | 0.00 | 100 | 961.1 |
| 20260903040450 | 52 | 266 | 2.0 | 4.0 | 0.00 | 0.00 | 0.00 | 100 | 961.1 |
| 20260903040247 | 51 | 0 | 0.0 | 1.0 | 0.00 | 0.00 | 0.00 | 100 | 961.2 |
| 20260903040044 | 51 | 0 | 0.0 | 2.0 | 0.00 | 0.00 | 0.00 | 100 | 961.2 |
| 20260903035943 | 51 | 0 | 0.0 | 2.0 | 0.00 | 0.00 | 0.00 | 100 | 961.1 |
| 20260903035841 | 52 | 265 | 0.0 | 2.0 | 0.00 | 0.00 | 0.00 | 100 | 961.1 |
| 20260903035637 | 52 | 291 | 1.0 | 2.0 | 0.00 | 0.00 | 0.00 | 100 | 961.0 |
| 20260903035434 | 52 | 291 | 1.0 | 2.0 | 0.00 | 0.00 | 0.00 | 100 | 961.1 |
| 20260903035333 | 51 | 274 | 0.0 | 2.0 | 0.00 | 0.00 | 0.00 | 100 | 961.0 |
| 20260903035231 | 51 | 0 | 0.0 | 2.0 | 0.00 | 0.00 | 0.00 | 100 | 961.0 |
| 20260903035027 | 52 | 287 | 1.0 | 2.0 | 0.00 | 0.00 | 0.00 | 100 | 961.0 |
| 20260903034824 | 51 | 285 | 0.0 | 2.0 | 0.00 | 0.00 | 0.00 | 100 | 961.0 |
| 20260903034724 | 51 | 0 | 0.0 | 1.0 | 0.00 | 0.00 | 0.00 | 100 | 961.1 |
| 20260903034622 | 51 | 0 | 0.0 | 1.0 | 0.00 | 0.00 | 0.00 | 100 | 961.1 |
| 20260903034419 | 51 | 0 | 0.0 | 1.0 | 0.00 | 0.00 | 0.00 | 100 | 961.1 |
| 20260903034215 | 51 | 0 | 0.0 | 1.0 | 0.00 | 0.00 | 0.00 | 100 | 961.2 |
| 20260903034115 | 51 | 0 | 0.0 | 2.0 | 0.00 | 0.00 | 0.00 | 100 | 961.2 |
| 20260903034012 | 51 | 246 | 0.0 | 3.0 | 0.00 | 0.00 | 0.00 | 100 | 961.2 |
| 20260903033809 | 51 | 250 | 1.0 | 3.0 | 0.00 | 0.00 | 0.00 | 100 | 961.2 |
| 20260903033606 | 51 | 281 | 1.0 | 2.0 | 0.00 | 0.00 | 0.00 | 100 | 961.0 |
| 20260903033505 | 51 | 288 | 1.0 | 2.0 | 0.00 | 0.00 | 0.00 | 100 | 961.1 |
| 20260903033403 | 51 | 284 | 1.0 | 4.0 | 0.00 | 0.00 | 0.00 | 100 | 961.1 |
| 20260903033159 | 51 | 288 | 3.0 | 5.0 | 0.00 | 0.00 | 0.00 | 100 | 961.2 |
| 20260903032957 | 51 | 302 | 4.0 | 5.0 | 0.00 | 0.00 | 0.00 | 100 | 961.3 |
| 20260903032856 | 51 | 306 | 3.0 | 4.0 | 0.00 | 0.00 | 0.00 | 100 | 961.3 |
| 20260903032754 | 51 | 309 | 3.0 | 4.0 | 0.00 | 0.00 | 0.00 | 100 | 961.3 |
| 20260903032551 | 51 | 320 | 3.0 | 4.0 | 0.00 | 0.00 | 0.00 | 100 | 961.3 |
| 20260903032347 | 51 | 339 | 3.0 | 4.0 | 0.00 | 0.00 | 0.00 | 100 | 961.3 |
| 20260903032247 | 51 | 340 | 3.0 | 4.0 | 0.00 | 0.00 | 0.00 | 100 | 961.2 |
| 20260903032144 | 51 | 341 | 3.0 | 4.0 | 0.00 | 0.00 | 0.00 | 100 | 961.2 |
| 20260903031941 | 52 | 338 | 2.0 | 3.0 | 0.00 | 0.00 | 0.00 | 100 | 961.2 |
| 20260903031738 | 52 | 353 | 2.0 | 3.0 | 0.00 | 0.00 | 0.00 | 100 | 961.2 |
| 20260903031637 | 52 | 4 | 2.0 | 3.0 | 0.00 | 0.00 | 0.00 | 100 | 961.2 |
| 20260903031534 | 52 | 7 | 2.0 | 3.0 | 0.00 | 0.00 | 0.00 | 100 | 961.2 |
| 20260903031331 | 52 | 18 | 2.0 | 3.0 | 0.00 | 0.00 | 0.00 | 100 | 961.1 |
| 20260903031128 | 52 | 8 | 2.0 | 3.0 | 0.00 | 0.00 | 0.00 | 100 | 961.2 |
| 20260903031027 | 52 | 4 | 2.0 | 3.0 | 0.00 | 0.00 | 0.00 | 100 | 961.1 |
| 20260903030925 | 52 | 0 | 1.0 | 3.0 | 0.00 | 0.00 | 0.00 | 100 | 961.2 |
| 20260903030721 | 52 | 0 | 1.0 | 3.0 | 0.00 | 0.00 | 0.00 | 100 | 961.0 |
| 20260903030519 | 52 | 0 | 0.0 | 1.0 | 0.00 | 0.00 | 0.00 | 100 | 961.0 |
| 20260903030418 | 52 | 0 | 0.0 | 2.0 | 0.00 | 0.00 | 0.00 | 100 | 961.2 |
| 20260903030316 | 51 | 0 | 0.0 | 2.0 | 0.00 | 0.00 | 0.00 | 100 | 961.1 |
| 20260903030112 | 51 | 0 | 0.0 | 2.0 | 0.00 | 0.00 | 0.00 | 100 | 961.2 |
| 20260903025909 | 51 | 0 | 0.0 | 2.0 | 0.00 | 0.00 | 0.00 | 100 | 961.3 |
| 20260903025808 | 51 | 0 | 0.0 | 2.0 | 0.00 | 0.00 | 0.00 | 100 | 961.2 |
| 20260903025706 | 51 | 0 | 0.0 | 2.0 | 0.00 | 0.00 | 0.00 | 100 | 961.3 |
| 20260903025504 | 51 | 237 | 1.0 | 3.0 | 0.00 | 0.00 | 0.00 | 100 | 961.3 |
| 20260903025302 | 51 | 259 | 1.0 | 4.0 | 0.00 | 0.00 | 0.00 | 100 | 961.3 |
| 20260903025201 | 51 | 262 | 1.0 | 4.0 | 0.00 | 0.00 | 0.00 | 100 | 961.3 |
| 20260903025058 | 51 | 289 | 1.0 | 4.0 | 0.00 | 0.00 | 0.00 | 100 | 961.1 |
| 20260903024855 | 50 | 314 | 2.0 | 4.0 | 0.00 | 0.00 | 0.00 | 100 | 961.3 |
| 20260903024652 | 50 | 319 | 3.0 | 4.0 | 0.00 | 0.00 | 0.00 | 100 | 961.3 |
| 20260903024551 | 50 | 321 | 3.0 | 4.0 | 0.00 | 0.00 | 0.00 | 100 | 961.3 |
| 20260903024449 | 51 | 328 | 3.0 | 4.0 | 0.00 | 0.00 | 0.00 | 100 | 961.3 |
| 20260903024246 | 51 | 329 | 4.0 | 4.0 | 0.00 | 0.00 | 0.00 | 100 | 961.3 |
| 20260903024042 | 51 | 315 | 4.0 | 4.0 | 0.00 | 0.00 | 0.00 | 100 | 961.3 |
| 20260903023941 | 51 | 312 | 4.0 | 4.0 | 0.00 | 0.00 | 0.00 | 100 | 961.3 |
| 20260903023839 | 51 | 310 | 3.0 | 4.0 | 0.00 | 0.00 | 0.00 | 100 | 961.2 |
| 20260903023636 | 51 | 300 | 2.0 | 4.0 | 0.00 | 0.00 | 0.00 | 100 | 961.1 |
| 20260903023433 | 51 | 267 | 2.0 | 4.0 | 0.00 | 0.00 | 0.00 | 100 | 961.3 |
| 20260903023230 | 51 | 280 | 2.0 | 4.0 | 0.00 | 0.00 | 0.00 | 100 | 961.2 |
| 20260903023026 | 51 | 290 | 3.0 | 4.0 | 0.00 | 0.00 | 0.00 | 100 | 961.3 |
| 20260903022824 | 51 | 299 | 3.0 | 4.0 | 0.00 | 0.00 | 0.00 | 100 | 961.2 |
| 20260903022723 | 51 | 298 | 2.0 | 4.0 | 0.00 | 0.00 | 0.00 | 100 | 961.3 |
| 20260903022620 | 51 | 295 | 2.0 | 4.0 | 0.00 | 0.00 | 0.00 | 100 | 961.3 |
| 20260903022416 | 51 | 296 | 2.0 | 4.0 | 0.00 | 0.00 | 0.00 | 100 | 961.2 |
| 20260903022200 | 51 | 305 | 2.0 | 3.0 | 0.00 | 0.00 | 0.00 | 100 | 961.4 |
| 20260903022100 | 51 | 310 | 2.0 | 4.0 | 0.00 | 0.00 | 0.00 | 100 | 961.3 |
| 20260903021958 | 51 | 315 | 3.0 | 6.0 | 0.00 | 0.00 | 0.00 | 100 | 961.4 |
| 20260903021755 | 51 | 324 | 4.0 | 6.0 | 0.00 | 0.00 | 0.00 | 100 | 961.5 |
| 20260903021551 | 51 | 324 | 4.0 | 6.0 | 0.00 | 0.00 | 0.00 | 100 | 961.4 |
| 20260903021451 | 51 | 322 | 4.0 | 6.0 | 0.00 | 0.00 | 0.00 | 100 | 961.4 |
| 20260903021348 | 51 | 341 | 4.0 | 6.0 | 0.00 | 0.00 | 0.00 | 100 | 961.5 |
| 20260903021145 | 52 | 31 | 3.0 | 6.0 | 0.00 | 0.00 | 0.00 | 100 | 961.4 |
| 20260903020942 | 53 | 58 | 2.0 | 5.0 | 0.00 | 0.00 | 0.00 | 100 | 961.4 |
| 20260903020842 | 53 | 44 | 2.0 | 4.0 | 0.00 | 0.00 | 0.00 | 100 | 961.4 |
| 20260903020739 | 53 | 34 | 1.0 | 3.0 | 0.00 | 0.00 | 0.00 | 100 | 961.4 |
| 20260903020536 | 53 | 17 | 2.0 | 4.0 | 0.00 | 0.00 | 0.00 | 100 | 961.3 |
| 20260903020332 | 53 | 42 | 3.0 | 4.0 | 0.00 | 0.00 | 0.00 | 100 | 961.4 |
| 20260903020232 | 53 | 52 | 3.0 | 5.0 | 0.00 | 0.00 | 0.00 | 100 | 961.4 |
| 20260903020130 | 53 | 66 | 3.0 | 5.0 | 0.00 | 0.00 | 0.00 | 100 | 961.4 |
| 20260903015927 | 53 | 68 | 3.0 | 5.0 | 0.00 | 0.00 | 0.00 | 100 | 961.4 |
| 20260903015724 | 55 | 354 | 2.0 | 5.0 | 0.00 | 0.00 | 0.00 | 100 | 961.3 |
| 20260903015623 | 55 | 318 | 2.0 | 5.0 | 0.00 | 0.00 | 0.00 | 100 | 961.3 |
| 20260903015521 | 56 | 299 | 2.0 | 6.0 | 0.00 | 0.00 | 0.00 | 100 | 961.3 |
| 20260903015318 | 55 | 303 | 2.0 | 6.0 | 0.00 | 0.00 | 0.00 | 100 | 961.3 |
| 20260903015114 | 55 | 333 | 2.0 | 4.0 | 0.00 | 0.00 | 0.00 | 100 | 961.3 |
| 20260903015014 | 54 | 342 | 2.0 | 4.0 | 0.00 | 0.00 | 0.00 | 100 | 961.3 |
| 20260903014911 | 54 | 353 | 2.0 | 5.0 | 0.00 | 0.00 | 0.00 | 100 | 961.4 |
| 20260903014708 | 54 | 5 | 2.0 | 5.0 | 0.00 | 0.00 | 0.00 | 100 | 961.4 |
| 20260903014505 | 54 | 0 | 2.0 | 4.0 | 0.00 | 0.00 | 0.00 | 100 | 961.5 |
| 20260903014404 | 53 | 0 | 2.0 | 4.0 | 0.00 | 0.00 | 0.00 | 100 | 961.5 |
| 20260903014302 | 53 | 0 | 2.0 | 4.0 | 0.00 | 0.00 | 0.00 | 100 | 961.5 |
| 20260903014059 | 53 | 270 | 2.0 | 5.0 | 0.00 | 0.00 | 0.00 | 100 | 961.4 |
| 20260903013855 | 53 | 270 | 2.0 | 5.0 | 0.00 | 0.00 | 0.00 | 100 | 961.5 |
| 20260903013755 | 53 | 282 | 2.0 | 5.0 | 0.00 | 0.00 | 0.00 | 100 | 961.6 |
| 20260903013653 | 53 | 297 | 2.0 | 3.0 | 0.00 | 0.00 | 0.00 | 100 | 961.5 |
| 20260903013449 | 53 | 0 | 1.0 | 3.0 | 0.00 | 0.00 | 0.00 | 100 | 961.5 |
| 20260903013246 | 53 | 0 | 0.0 | 1.0 | 0.00 | 0.00 | 0.00 | 100 | 961.4 |
| 20260903013146 | 53 | 0 | 0.0 | 2.0 | 0.00 | 0.00 | 0.00 | 100 | 961.5 |
| 20260903013044 | 53 | 0 | 0.0 | 2.0 | 0.00 | 0.00 | 0.00 | 100 | 961.5 |
| 20260903012841 | 53 | 0 | 1.0 | 4.0 | 0.00 | 0.00 | 0.00 | 100 | 961.5 |
| 20260903012637 | 52 | 313 | 3.0 | 6.0 | 0.00 | 0.00 | 0.00 | 100 | 961.5 |
| 20260903012536 | 52 | 318 | 3.0 | 6.0 | 0.00 | 0.00 | 0.00 | 100 | 961.5 |
| 20260903012434 | 52 | 317 | 4.0 | 6.0 | 0.00 | 0.00 | 0.00 | 100 | 961.4 |
| 20260903012230 | 53 | 312 | 2.0 | 5.0 | 0.00 | 0.00 | 0.00 | 100 | 961.4 |
| 20260903012027 | 53 | 311 | 1.0 | 3.0 | 0.00 | 0.00 | 0.00 | 100 | 961.5 |
| 20260903011927 | 53 | 347 | 1.0 | 2.0 | 0.00 | 0.00 | 0.00 | 100 | 961.5 |
| 20260903011824 | 52 | 34 | 1.0 | 3.0 | 0.00 | 0.00 | 0.00 | 100 | 961.5 |
| 20260903011621 | 53 | 77 | 2.0 | 3.0 | 0.00 | 0.00 | 0.00 | 100 | 961.6 |
| 20260903011418 | 52 | 82 | 2.0 | 3.0 | 0.00 | 0.00 | 0.00 | 100 | 961.5 |
| 20260903011317 | 52 | 0 | 1.0 | 3.0 | 0.00 | 0.00 | 0.00 | 100 | 961.4 |
| 20260903011215 | 53 | 0 | 1.0 | 3.0 | 0.00 | 0.00 | 0.00 | 100 | 961.5 |
| 20260903011012 | 53 | 261 | 2.0 | 4.0 | 0.00 | 0.00 | 0.00 | 100 | 961.5 |
| 20260903010809 | 52 | 249 | 1.0 | 4.0 | 0.00 | 0.00 | 0.00 | 100 | 961.5 |
| 20260903010708 | 52 | 246 | 1.0 | 4.0 | 0.00 | 0.00 | 0.00 | 100 | 961.5 |
| 20260903010606 | 52 | 0 | 0.0 | 3.0 | 0.00 | 0.00 | 0.00 | 100 | 961.5 |
| 20260903010402 | 52 | 0 | 0.0 | 3.0 | 0.00 | 0.00 | 0.00 | 100 | 961.6 |
| 20260903010159 | 52 | 146 | 0.0 | 4.0 | 0.00 | 0.00 | 0.00 | 100 | 961.4 |
| 20260903010058 | 52 | 152 | 1.0 | 4.0 | 0.00 | 0.00 | 0.00 | 100 | 961.5 |
| 20260903005956 | 51 | 156 | 1.0 | 4.0 | 0.00 | 0.00 | 0.00 | 100 | 961.5 |
| 20260903005753 | 51 | 170 | 1.0 | 4.0 | 0.00 | 0.00 | 0.00 | 100 | 961.6 |
| 20260903005550 | 51 | 317 | 1.0 | 3.0 | 0.00 | 0.00 | 0.00 | 100 | 961.6 |
| 20260903005449 | 51 | 330 | 2.0 | 5.0 | 0.00 | 0.00 | 0.00 | 100 | 961.5 |
| 20260903005346 | 51 | 344 | 2.0 | 5.0 | 0.00 | 0.00 | 0.00 | 100 | 961.6 |
| 20260903005143 | 51 | 355 | 3.0 | 5.0 | 0.00 | 0.00 | 0.00 | 100 | 961.6 |
| 20260903004939 | 51 | 354 | 4.0 | 5.0 | 0.00 | 0.00 | 0.00 | 100 | 961.6 |
| 20260903004839 | 51 | 352 | 4.0 | 6.0 | 0.00 | 0.00 | 0.00 | 100 | 961.6 |
| 20260903004736 | 51 | 350 | 4.0 | 6.0 | 0.00 | 0.00 | 0.00 | 100 | 961.4 |
| 20260903004533 | 51 | 341 | 5.0 | 6.0 | 0.00 | 0.00 | 0.00 | 100 | 961.4 |
| 20260903004330 | 52 | 340 | 4.0 | 6.0 | 0.00 | 0.00 | 0.00 | 100 | 961.5 |
| 20260903004230 | 52 | 339 | 3.0 | 6.0 | 0.00 | 0.00 | 0.00 | 100 | 961.4 |
| 20260903004128 | 52 | 332 | 2.0 | 6.0 | 0.00 | 0.00 | 0.00 | 100 | 961.4 |
| 20260903003925 | 54 | 0 | 1.0 | 4.0 | 0.00 | 0.00 | 0.00 | 100 | 961.5 |
| 20260903003722 | 54 | 191 | 1.0 | 4.0 | 0.00 | 0.00 | 0.00 | 100 | 961.5 |
| 20260903003621 | 54 | 187 | 1.0 | 4.0 | 0.00 | 0.00 | 0.00 | 100 | 961.5 |
| 20260903003519 | 55 | 179 | 2.0 | 4.0 | 0.00 | 0.00 | 0.00 | 100 | 961.4 |
| 20260903003315 | 55 | 186 | 1.0 | 4.0 | 0.00 | 0.00 | 0.00 | 100 | 961.4 |
| 20260903003112 | 55 | 0 | 1.0 | 4.0 | 0.00 | 0.00 | 0.00 | 100 | 961.5 |
| 20260903003012 | 55 | 0 | 0.0 | 4.0 | 0.00 | 0.00 | 0.00 | 100 | 961.4 |
| 20260903002909 | 55 | 0 | 1.0 | 4.0 | 0.00 | 0.00 | 0.00 | 100 | 961.4 |
| 20260903002705 | 55 | 165 | 1.0 | 4.0 | 0.00 | 0.00 | 0.00 | 100 | 961.4 |
| 20260903002502 | 55 | 165 | 2.0 | 5.0 | 0.00 | 0.00 | 0.00 | 100 | 961.4 |
| 20260903002402 | 55 | 154 | 2.0 | 5.0 | 0.00 | 0.00 | 0.00 | 100 | 961.5 |
| 20260903002259 | 55 | 151 | 2.0 | 5.0 | 0.00 | 0.00 | 0.00 | 100 | 961.4 |
| 20260903002056 | 55 | 0 | 0.0 | 2.0 | 0.00 | 0.00 | 0.00 | 100 | 961.6 |
| 20260903001853 | 55 | 0 | 0.0 | 2.0 | 0.00 | 0.00 | 0.00 | 100 | 961.6 |
| 20260903001752 | 55 | 0 | 0.0 | 2.0 | 0.00 | 0.00 | 0.00 | 100 | 961.5 |
| 20260903001650 | 55 | 0 | 0.0 | 2.0 | 0.00 | 0.00 | 0.00 | 100 | 961.5 |
| 20260903001447 | 54 | 0 | 0.0 | 1.0 | 0.00 | 0.00 | 0.00 | 100 | 961.5 |
| 20260903001243 | 54 | 0 | 0.0 | 1.0 | 0.00 | 0.00 | 0.00 | 100 | 961.5 |
| 20260903001142 | 54 | 0 | 0.0 | 1.0 | 0.00 | 0.00 | 0.00 | 100 | 961.4 |
| 20260903001040 | 54 | 0 | 0.0 | 2.0 | 0.00 | 0.00 | 0.00 | 100 | 961.4 |
| 20260903000837 | 54 | 0 | 0.0 | 2.0 | 0.00 | 0.00 | 0.00 | 100 | 961.6 |
| 20260903000634 | 54 | 0 | 0.0 | 1.0 | 0.00 | 0.00 | 0.00 | 100 | 961.5 |
| 20260903000533 | 54 | 0 | 0.0 | 1.0 | 0.00 | 0.00 | 0.00 | 100 | 961.5 |
| 20260903000432 | 54 | 0 | 0.0 | 1.0 | 0.00 | 0.00 | 0.00 | 100 | 961.5 |
| 20260903000228 | 54 | 0 | 0.0 | 1.0 | 0.00 | 0.00 | 0.00 | 100 | 961.4 |
| 20260903000025 | 54 | 42 | 1.0 | 2.0 | 0.00 | 0.00 | 0.00 | 100 | 961.5 |
| 20260902235924 | 54 | 46 | 1.0 | 2.0 | 0.00 | 0.00 | 0.00 | 100 | 961.4 |
| 20260902235821 | 54 | 48 | 1.0 | 2.0 | 0.00 | 0.00 | 0.00 | 100 | 961.5 |
| 20260902235618 | 54 | 60 | 1.0 | 2.0 | 0.00 | 0.00 | 0.00 | 100 | 961.5 |
| 20260902235415 | 53 | 51 | 1.0 | 1.0 | 0.00 | 0.00 | 0.00 | 100 | 961.5 |
| 20260902235314 | 53 | 35 | 1.0 | 2.0 | 0.00 | 0.00 | 0.00 | 100 | 961.5 |
| 20260902235212 | 53 | 20 | 1.0 | 2.0 | 0.00 | 0.00 | 0.00 | 100 | 961.4 |
| 20260902235009 | 53 | 0 | 1.0 | 1.0 | 0.00 | 0.00 | 0.00 | 100 | 961.5 |
| 20260902234806 | 53 | 0 | 0.0 | 1.0 | 0.00 | 0.00 | 0.00 | 100 | 961.5 |
| 20260902234705 | 53 | 0 | 0.0 | 1.0 | 0.00 | 0.00 | 0.00 | 100 | 961.4 |
| 20260902234603 | 53 | 0 | 0.0 | 1.0 | 0.00 | 0.00 | 0.00 | 100 | 961.4 |
| 20260902234400 | 53 | 0 | 0.0 | 2.0 | 0.00 | 0.00 | 0.00 | 100 | 961.5 |
| 20260902234147 | 53 | 0 | 0.0 | 2.0 | 0.00 | 0.00 | 0.00 | 100 | 961.4 |
| 20260902234046 | 53 | 0 | 0.0 | 2.0 | 0.00 | 0.00 | 0.00 | 100 | 961.5 |
| 20260902233944 | 53 | 0 | 0.0 | 1.0 | 0.00 | 0.00 | 0.00 | 100 | 961.5 |
| 20260902233740 | 54 | 0 | 0.0 | 1.0 | 0.00 | 0.00 | 0.00 | 100 | 961.6 |
| 20260902233537 | 54 | 0 | 0.0 | 1.0 | 0.00 | 0.00 | 0.00 | 100 | 961.5 |
| 20260902233437 | 54 | 0 | 0.0 | 2.0 | 0.00 | 0.00 | 0.00 | 100 | 961.4 |
| 20260902233334 | 54 | 0 | 0.0 | 2.0 | 0.00 | 0.00 | 0.00 | 100 | 961.5 |
| 20260902233131 | 54 | 193 | 1.0 | 2.0 | 0.00 | 0.00 | 0.00 | 100 | 961.5 |
| 20260902232928 | 54 | 0 | 1.0 | 2.0 | 0.00 | 0.00 | 0.00 | 100 | 961.5 |
| 20260902232827 | 54 | 0 | 0.0 | 2.0 | 0.00 | 0.00 | 0.00 | 100 | 961.5 |
| 20260902232725 | 54 | 0 | 0.0 | 2.0 | 0.00 | 0.00 | 0.00 | 100 | 961.5 |
| 20260902232521 | 54 | 0 | 1.0 | 2.0 | 0.00 | 0.00 | 0.00 | 100 | 961.7 |
| 20260902232319 | 54 | 284 | 1.0 | 2.0 | 0.00 | 0.00 | 0.00 | 100 | 961.7 |
| 20260902232218 | 53 | 0 | 0.0 | 2.0 | 0.00 | 0.00 | 0.00 | 100 | 961.7 |
| 20260902232115 | 53 | 0 | 0.0 | 2.0 | 0.00 | 0.00 | 0.00 | 100 | 961.7 |
| 20260902231912 | 53 | 287 | 1.0 | 2.0 | 0.00 | 0.00 | 0.00 | 100 | 961.7 |
| 20260902231708 | 53 | 316 | 1.0 | 2.0 | 0.00 | 0.00 | 0.00 | 100 | 961.6 |
| 20260902231607 | 53 | 326 | 0.0 | 1.0 | 0.00 | 0.00 | 0.00 | 100 | 961.7 |
| 20260902231505 | 53 | 0 | 0.0 | 1.0 | 0.00 | 0.00 | 0.00 | 100 | 961.7 |
| 20260902231302 | 53 | 0 | 0.0 | 1.0 | 0.00 | 0.00 | 0.00 | 100 | 961.7 |
| 20260902231059 | 53 | 0 | 0.0 | 2.0 | 0.00 | 0.00 | 0.00 | 100 | 961.8 |
| 20260902230958 | 53 | 0 | 0.0 | 2.0 | 0.00 | 0.00 | 0.00 | 100 | 961.7 |
| 20260902230856 | 53 | 292 | 1.0 | 2.0 | 0.00 | 0.00 | 0.00 | 100 | 961.7 |
| 20260902230653 | 53 | 308 | 1.0 | 2.0 | 0.00 | 0.00 | 0.00 | 100 | 961.8 |
| 20260902230449 | 53 | 313 | 2.0 | 2.0 | 0.00 | 0.00 | 0.00 | 100 | 961.7 |
| 20260902230349 | 53 | 313 | 2.0 | 2.0 | 0.00 | 0.00 | 0.00 | 100 | 961.7 |
| 20260902230247 | 53 | 317 | 2.0 | 2.0 | 0.00 | 0.00 | 0.00 | 100 | 961.7 |
| 20260902230044 | 53 | 327 | 2.0 | 3.0 | 0.00 | 0.00 | 0.00 | 100 | 961.6 |
| 20260902225841 | 53 | 333 | 2.0 | 3.0 | 0.00 | 0.00 | 0.00 | 100 | 961.8 |
| 20260902225740 | 53 | 346 | 3.0 | 3.0 | 0.00 | 0.00 | 0.00 | 100 | 961.7 |
| 20260902225637 | 53 | 351 | 3.0 | 3.0 | 0.00 | 0.00 | 0.00 | 100 | 961.7 |
| 20260902225434 | 54 | 4 | 3.0 | 4.0 | 0.00 | 0.00 | 0.00 | 100 | 961.6 |
| 20260902225231 | 54 | 8 | 3.0 | 4.0 | 0.00 | 0.00 | 0.00 | 100 | 961.6 |
| 20260902225131 | 54 | 8 | 3.0 | 4.0 | 0.00 | 0.00 | 0.00 | 100 | 961.6 |
| 20260902225029 | 54 | 6 | 3.0 | 4.0 | 0.00 | 0.00 | 0.00 | 100 | 961.7 |
| 20260902224825 | 54 | 2 | 2.0 | 4.0 | 0.00 | 0.00 | 0.00 | 100 | 961.7 |
| 20260902224622 | 54 | 18 | 1.0 | 3.0 | 0.00 | 0.00 | 0.00 | 100 | 961.7 |
| 20260902224522 | 55 | 0 | 1.0 | 2.0 | 0.00 | 0.00 | 0.00 | 100 | 961.7 |
| 20260902224419 | 55 | 0 | 1.0 | 2.0 | 0.00 | 0.00 | 0.00 | 100 | 961.6 |
| 20260902224216 | 55 | 113 | 1.0 | 2.0 | 0.00 | 0.00 | 0.00 | 100 | 961.8 |
| 20260902224012 | 55 | 110 | 1.0 | 2.0 | 0.00 | 0.00 | 0.00 | 100 | 961.7 |
| 20260902223912 | 55 | 109 | 1.0 | 2.0 | 0.00 | 0.00 | 0.00 | 100 | 961.7 |
| 20260902223809 | 55 | 0 | 0.0 | 2.0 | 0.00 | 0.00 | 0.00 | 100 | 961.7 |
| 20260902223606 | 55 | 0 | 0.0 | 1.0 | 0.00 | 0.00 | 0.00 | 100 | 961.7 |
| 20260902223403 | 55 | 0 | 0.0 | 1.0 | 0.00 | 0.00 | 0.00 | 100 | 961.7 |
| 20260902223302 | 55 | 0 | 0.0 | 1.0 | 0.00 | 0.00 | 0.00 | 100 | 961.7 |
| 20260902223200 | 54 | 0 | 0.0 | 1.0 | 0.00 | 0.00 | 0.00 | 100 | 961.6 |
| 20260902222957 | 54 | 0 | 0.0 | 1.0 | 0.00 | 0.00 | 0.00 | 100 | 961.8 |
| 20260902222753 | 54 | 0 | 0.0 | 1.0 | 0.00 | 0.00 | 0.00 | 100 | 961.7 |
| 20260902222652 | 54 | 0 | 0.0 | 1.0 | 0.00 | 0.00 | 0.00 | 100 | 961.6 |
| 20260902222550 | 54 | 0 | 0.0 | 1.0 | 0.00 | 0.00 | 0.00 | 100 | 961.7 |
| 20260902222347 | 55 | 0 | 0.0 | 1.0 | 0.00 | 0.00 | 0.00 | 100 | 961.6 |
| 20260902222144 | 55 | 0 | 0.0 | 2.0 | 0.00 | 0.00 | 0.00 | 100 | 961.7 |
| 20260902222043 | 55 | 193 | 1.0 | 3.0 | 0.00 | 0.00 | 0.00 | 100 | 961.6 |
| 20260902221941 | 55 | 175 | 1.0 | 3.0 | 0.00 | 0.00 | 0.00 | 100 | 961.7 |
| 20260902221738 | 55 | 169 | 2.0 | 3.0 | 0.00 | 0.00 | 0.00 | 100 | 961.7 |
| 20260902221534 | 55 | 152 | 1.0 | 3.0 | 0.00 | 0.00 | 0.00 | 100 | 961.6 |
| 20260902221433 | 55 | 0 | 1.0 | 3.0 | 0.00 | 0.00 | 0.00 | 100 | 961.6 |
| 20260902221331 | 55 | 0 | 0.0 | 3.0 | 0.00 | 0.00 | 0.00 | 100 | 961.7 |
| 20260902221128 | 55 | 0 | 0.0 | 2.0 | 0.00 | 0.00 | 0.00 | 100 | 961.7 |
| 20260902220924 | 55 | 257 | 1.0 | 2.0 | 0.00 | 0.00 | 0.00 | 100 | 961.8 |
| 20260902220823 | 55 | 245 | 1.0 | 2.0 | 0.00 | 0.00 | 0.00 | 100 | 961.7 |
| 20260902220721 | 55 | 239 | 1.0 | 2.0 | 0.00 | 0.00 | 0.00 | 100 | 961.8 |
| 20260902220518 | 55 | 0 | 0.0 | 2.0 | 0.00 | 0.00 | 0.00 | 100 | 961.8 |
| 20260902220314 | 55 | 0 | 0.0 | 1.0 | 0.00 | 0.00 | 0.00 | 100 | 961.7 |
| 20260902220214 | 55 | 0 | 0.0 | 1.0 | 0.00 | 0.00 | 0.00 | 100 | 961.8 |
| 20260902220111 | 55 | 0 | 0.0 | 2.0 | 0.00 | 0.00 | 0.00 | 100 | 961.8 |
| 20260902215908 | 55 | 0 | 0.0 | 2.0 | 0.00 | 0.00 | 0.00 | 100 | 961.7 |
| 20260902215705 | 55 | 192 | 0.0 | 2.0 | 0.00 | 0.00 | 0.00 | 100 | 961.8 |
| 20260902215604 | 55 | 189 | 1.0 | 2.0 | 0.00 | 0.00 | 0.00 | 100 | 961.8 |
| 20260902215502 | 55 | 187 | 1.0 | 2.0 | 0.00 | 0.00 | 0.00 | 100 | 961.8 |
| 20260902215259 | 55 | 210 | 0.0 | 2.0 | 0.00 | 0.00 | 0.00 | 100 | 961.8 |
| 20260902215055 | 55 | 0 | 0.0 | 2.0 | 0.00 | 0.00 | 0.00 | 100 | 961.8 |
| 20260902214955 | 55 | 0 | 0.0 | 2.0 | 0.00 | 0.00 | 0.00 | 100 | 961.9 |
| 20260902214852 | 55 | 0 | 0.0 | 2.0 | 0.00 | 0.00 | 0.00 | 100 | 961.8 |
| 20260902214649 | 55 | 0 | 0.0 | 2.0 | 0.00 | 0.00 | 0.00 | 100 | 961.9 |
| 20260902214446 | 55 | 0 | 0.0 | 2.0 | 0.00 | 0.00 | 0.00 | 100 | 961.9 |
| 20260902214346 | 55 | 0 | 1.0 | 2.0 | 0.00 | 0.00 | 0.00 | 100 | 961.9 |
| 20260902214243 | 56 | 202 | 1.0 | 2.0 | 0.00 | 0.00 | 0.00 | 100 | 961.8 |
| 20260902214039 | 56 | 0 | 0.0 | 2.0 | 0.00 | 0.00 | 0.00 | 100 | 961.9 |
| 20260902213837 | 56 | 199 | 1.0 | 3.0 | 0.00 | 0.00 | 0.00 | 100 | 961.8 |
| 20260902213736 | 56 | 204 | 1.0 | 3.0 | 0.00 | 0.00 | 0.00 | 100 | 961.8 |
| 20260902213633 | 56 | 218 | 1.0 | 3.0 | 0.00 | 0.00 | 0.00 | 100 | 961.8 |
| 20260902213430 | 57 | 301 | 1.0 | 2.0 | 0.00 | 0.00 | 0.00 | 100 | 961.8 |
| 20260902213227 | 57 | 319 | 1.0 | 2.0 | 0.00 | 0.00 | 0.00 | 100 | 961.7 |
| 20260902213126 | 57 | 326 | 1.0 | 2.0 | 0.00 | 0.00 | 0.00 | 100 | 961.8 |
| 20260902213024 | 57 | 330 | 1.0 | 2.0 | 0.00 | 0.00 | 0.00 | 100 | 961.8 |
| 20260902212820 | 57 | 0 | 0.0 | 2.0 | 0.00 | 0.00 | 0.00 | 100 | 961.8 |
| 20260902212617 | 56 | 0 | 0.0 | 1.0 | 0.00 | 0.00 | 0.00 | 100 | 961.7 |
| 20260902212414 | 56 | 0 | 0.0 | 1.0 | 0.00 | 0.00 | 0.00 | 100 | 961.8 |
| 20260902212211 | 56 | 0 | 0.0 | 1.0 | 0.00 | 0.00 | 0.00 | 100 | 961.7 |
| 20260902212008 | 56 | 0 | 0.0 | 1.0 | 0.00 | 0.00 | 0.00 | 100 | 961.7 |
| 20260902211907 | 56 | 0 | 0.0 | 1.0 | 0.00 | 0.00 | 0.00 | 100 | 961.8 |
| 20260902211805 | 56 | 0 | 0.0 | 2.0 | 0.00 | 0.00 | 0.00 | 100 | 961.8 |
| 20260902211602 | 56 | 0 | 0.0 | 2.0 | 0.00 | 0.00 | 0.00 | 100 | 961.7 |
| 20260902211359 | 57 | 0 | 0.0 | 2.0 | 0.00 | 0.00 | 0.00 | 100 | 961.7 |
| 20260902211258 | 57 | 0 | 0.0 | 2.0 | 0.00 | 0.00 | 0.00 | 100 | 961.7 |
| 20260902211156 | 57 | 0 | 0.0 | 2.0 | 0.00 | 0.00 | 0.00 | 100 | 961.7 |
| 20260902210953 | 57 | 222 | 0.0 | 1.0 | 0.00 | 0.00 | 0.00 | 100 | 961.7 |
| 20260902210750 | 57 | 0 | 0.0 | 1.0 | 0.00 | 0.00 | 0.00 | 100 | 961.7 |
| 20260902210649 | 57 | 0 | 0.0 | 1.0 | 0.00 | 0.00 | 0.00 | 100 | 961.6 |
| 20260902210546 | 57 | 0 | 1.0 | 2.0 | 0.00 | 0.00 | 0.00 | 100 | 961.6 |
| 20260902210331 | 58 | 354 | 1.0 | 2.0 | 0.00 | 0.00 | 0.00 | 100 | 961.7 |
| 20260902210127 | 58 | 345 | 1.0 | 2.0 | 0.00 | 0.00 | 0.00 | 100 | 961.7 |
| 20260902210026 | 58 | 338 | 1.0 | 2.0 | 0.00 | 0.00 | 0.00 | 100 | 961.6 |
| 20260902205924 | 58 | 327 | 1.0 | 2.0 | 0.00 | 0.00 | 0.00 | 100 | 961.5 |
| 20260902205721 | 58 | 308 | 1.0 | 2.0 | 0.00 | 0.00 | 0.00 | 100 | 961.7 |
| 20260902205518 | 58 | 304 | 1.0 | 2.0 | 0.00 | 0.00 | 0.00 | 100 | 961.7 |
| 20260902205417 | 58 | 298 | 1.0 | 2.0 | 0.00 | 0.00 | 0.00 | 100 | 961.6 |
| 20260902205314 | 58 | 289 | 1.0 | 2.0 | 0.00 | 0.00 | 0.00 | 100 | 961.7 |
| 20260902205111 | 58 | 281 | 1.0 | 2.0 | 0.00 | 0.00 | 0.00 | 100 | 961.7 |
| 20260902204907 | 58 | 286 | 1.0 | 2.0 | 0.00 | 0.00 | 0.00 | 100 | 961.7 |
| 20260902204807 | 58 | 288 | 1.0 | 2.0 | 0.00 | 0.00 | 0.00 | 100 | 961.7 |
| 20260902204704 | 58 | 262 | 1.0 | 2.0 | 0.00 | 0.00 | 0.00 | 100 | 961.7 |
| 20260902204501 | 57 | 221 | 1.0 | 2.0 | 0.00 | 0.00 | 0.00 | 100 | 961.6 |
| 20260902204258 | 58 | 216 | 1.0 | 2.0 | 0.00 | 0.00 | 0.00 | 100 | 961.7 |
| 20260902204158 | 57 | 0 | 1.0 | 2.0 | 0.00 | 0.00 | 0.00 | 100 | 961.7 |
| 20260902204055 | 57 | 0 | 0.0 | 1.0 | 0.00 | 0.00 | 0.00 | 100 | 961.7 |
| 20260902203852 | 57 | 0 | 0.0 | 2.0 | 0.00 | 0.00 | 0.00 | 100 | 961.6 |
| 20260902203649 | 57 | 225 | 1.0 | 2.0 | 0.00 | 0.00 | 0.00 | 100 | 961.5 |
| 20260902203548 | 57 | 221 | 1.0 | 2.0 | 0.00 | 0.00 | 0.00 | 100 | 961.6 |
| 20260902203446 | 57 | 0 | 0.0 | 2.0 | 0.00 | 0.00 | 0.00 | 100 | 961.6 |
| 20260902203242 | 57 | 0 | 0.0 | 2.0 | 0.00 | 0.00 | 0.00 | 100 | 961.6 |
| 20260902203039 | 57 | 0 | 0.0 | 2.0 | 0.00 | 0.00 | 0.00 | 100 | 961.6 |
| 20260902202938 | 57 | 0 | 0.0 | 2.0 | 0.00 | 0.00 | 0.00 | 100 | 961.6 |
| 20260902202835 | 57 | 0 | 0.0 | 2.0 | 0.00 | 0.00 | 0.00 | 100 | 961.6 |
| 20260902202632 | 57 | 0 | 0.0 | 2.0 | 0.00 | 0.00 | 0.00 | 100 | 961.6 |
| 20260902202429 | 57 | 0 | 0.0 | 3.0 | 0.00 | 0.00 | 0.00 | 100 | 961.6 |
| 20260902202329 | 58 | 0 | 0.0 | 3.0 | 0.00 | 0.00 | 0.00 | 100 | 961.7 |
| 20260902202226 | 58 | 0 | 1.0 | 3.0 | 0.00 | 0.00 | 0.00 | 100 | 961.6 |
| 20260902202023 | 58 | 0 | 0.0 | 3.0 | 0.00 | 0.00 | 0.00 | 100 | 961.6 |
| 20260902201820 | 58 | 0 | 0.0 | 2.0 | 0.00 | 0.00 | 0.00 | 100 | 961.6 |
| 20260902201719 | 58 | 0 | 0.0 | 2.0 | 0.00 | 0.00 | 0.00 | 100 | 961.6 |
| 20260902201616 | 58 | 0 | 0.0 | 2.0 | 0.00 | 0.00 | 0.00 | 100 | 961.6 |
| 20260902201412 | 58 | 0 | 0.0 | 2.0 | 0.00 | 0.00 | 0.00 | 100 | 961.7 |
| 20260902201209 | 58 | 0 | 0.0 | 2.0 | 0.00 | 0.00 | 0.00 | 100 | 961.6 |
| 20260902201109 | 58 | 0 | 0.0 | 2.0 | 0.00 | 0.00 | 0.00 | 100 | 961.6 |
| 20260902201006 | 58 | 0 | 1.0 | 2.0 | 0.00 | 0.00 | 0.00 | 100 | 961.7 |
| 20260902200804 | 58 | 207 | 1.0 | 2.0 | 0.00 | 0.00 | 0.00 | 100 | 961.7 |
| 20260902200601 | 58 | 0 | 1.0 | 2.0 | 0.00 | 0.00 | 0.00 | 100 | 961.6 |
| 20260902200500 | 58 | 0 | 0.0 | 2.0 | 0.00 | 0.00 | 0.00 | 100 | 961.7 |
| 20260902200358 | 58 | 0 | 0.0 | 2.0 | 0.00 | 0.00 | 0.00 | 100 | 961.7 |
| 20260902200155 | 59 | 0 | 0.0 | 2.0 | 0.00 | 0.00 | 0.00 | 100 | 961.8 |
| 20260902195952 | 58 | 0 | 0.0 | 3.0 | 0.00 | 0.00 | 0.00 | 100 | 961.7 |
| 20260902195851 | 58 | 0 | 0.0 | 2.0 | 0.00 | 0.00 | 0.00 | 100 | 961.7 |
| 20260902195749 | 58 | 0 | 0.0 | 2.0 | 0.00 | 0.00 | 0.00 | 100 | 961.6 |
| 20260902195545 | 58 | 0 | 0.0 | 2.0 | 0.00 | 0.00 | 0.00 | 100 | 961.7 |
| 20260902195342 | 58 | 0 | 0.0 | 2.0 | 0.00 | 0.00 | 0.00 | 100 | 961.8 |
| 20260902195242 | 59 | 0 | 0.0 | 2.0 | 0.00 | 0.00 | 0.00 | 100 | 961.7 |
| 20260902195140 | 59 | 0 | 0.0 | 2.0 | 0.00 | 0.00 | 0.00 | 100 | 961.7 |
| 20260902194937 | 59 | 0 | 0.0 | 2.0 | 0.00 | 0.00 | 0.00 | 100 | 961.7 |
| 20260902194734 | 59 | 0 | 0.0 | 2.0 | 0.00 | 0.00 | 0.00 | 100 | 961.8 |
| 20260902194633 | 59 | 0 | 0.0 | 2.0 | 0.00 | 0.00 | 0.00 | 100 | 961.7 |
| 20260902194531 | 59 | 0 | 0.0 | 2.0 | 0.00 | 0.00 | 0.00 | 100 | 961.7 |
| 20260902194328 | 59 | 0 | 0.0 | 2.0 | 0.00 | 0.00 | 0.00 | 100 | 961.6 |
| 20260902194124 | 59 | 0 | 1.0 | 3.0 | 0.00 | 0.00 | 0.00 | 100 | 961.7 |
| 20260902194024 | 59 | 0 | 1.0 | 3.0 | 0.00 | 0.00 | 0.00 | 100 | 961.7 |
| 20260902193922 | 59 | 0 | 1.0 | 4.0 | 0.00 | 0.00 | 0.00 | 100 | 961.7 |
| 20260902193718 | 60 | 0 | 1.0 | 4.0 | 0.00 | 0.00 | 0.00 | 100 | 961.7 |
| 20260902193515 | 59 | 0 | 1.0 | 4.0 | 0.00 | 0.00 | 0.00 | 100 | 961.7 |
| 20260902193414 | 59 | 0 | 1.0 | 4.0 | 0.00 | 0.00 | 0.00 | 100 | 961.6 |
| 20260902193312 | 59 | 243 | 1.0 | 4.0 | 0.00 | 0.00 | 0.00 | 100 | 961.7 |
| 20260902193109 | 59 | 0 | 1.0 | 4.0 | 0.00 | 0.00 | 0.00 | 100 | 961.7 |
| 20260902192905 | 59 | 0 | 1.0 | 4.0 | 0.00 | 0.00 | 0.00 | 100 | 961.8 |
| 20260902192804 | 59 | 0 | 1.0 | 3.0 | 0.00 | 0.00 | 0.00 | 100 | 961.8 |
| 20260902192702 | 59 | 0 | 1.0 | 3.0 | 0.00 | 0.00 | 0.00 | 100 | 961.8 |
| 20260902192459 | 59 | 0 | 1.0 | 3.0 | 0.00 | 0.00 | 0.00 | 100 | 961.7 |
| 20260902192256 | 59 | 0 | 1.0 | 4.0 | 0.00 | 0.00 | 0.00 | 100 | 961.8 |
| 20260902192155 | 59 | 0 | 1.0 | 4.0 | 0.00 | 0.00 | 0.00 | 100 | 961.8 |
| 20260902192053 | 59 | 0 | 1.0 | 4.0 | 0.00 | 0.00 | 0.00 | 100 | 961.8 |
| 20260902191849 | 59 | 0 | 1.0 | 4.0 | 0.00 | 0.00 | 0.00 | 100 | 961.8 |
| 20260902191647 | 60 | 0 | 1.0 | 5.0 | 0.00 | 0.00 | 0.00 | 100 | 961.8 |
| 20260902191546 | 60 | 0 | 1.0 | 5.0 | 0.00 | 0.00 | 0.00 | 100 | 961.8 |
| 20260902191444 | 60 | 0 | 1.0 | 5.0 | 0.00 | 0.00 | 0.00 | 100 | 961.8 |
| 20260902191240 | 60 | 0 | 1.0 | 5.0 | 0.00 | 0.00 | 0.00 | 100 | 961.9 |
| 20260902191037 | 60 | 0 | 1.0 | 5.0 | 0.00 | 0.00 | 0.00 | 100 | 961.9 |
| 20260902190937 | 60 | 0 | 1.0 | 5.0 | 0.00 | 0.00 | 0.00 | 100 | 961.9 |
| 20260902190834 | 60 | 0 | 1.0 | 5.0 | 0.00 | 0.00 | 0.00 | 100 | 961.8 |
| 20260902190632 | 60 | 0 | 1.0 | 3.0 | 0.00 | 0.00 | 0.00 | 100 | 961.8 |
| 20260902190429 | 60 | 0 | 1.0 | 3.0 | 0.00 | 0.00 | 0.00 | 100 | 961.8 |
| 20260902190329 | 60 | 0 | 1.0 | 3.0 | 0.00 | 0.00 | 0.00 | 100 | 961.8 |
| 20260902190226 | 60 | 0 | 1.0 | 3.0 | 0.00 | 0.00 | 0.00 | 100 | 961.8 |
| 20260902190024 | 60 | 0 | 1.0 | 3.0 | 0.00 | 0.00 | 0.00 | 100 | 961.8 |
| 20260902185820 | 60 | 0 | 1.0 | 3.0 | 0.00 | 0.00 | 0.00 | 100 | 961.8 |
| 20260902185719 | 60 | 0 | 1.0 | 3.0 | 0.00 | 0.00 | 0.00 | 100 | 961.9 |
| 20260902185616 | 60 | 0 | 1.0 | 3.0 | 0.00 | 0.00 | 0.00 | 100 | 961.9 |
| 20260902185413 | 60 | 0 | 1.0 | 5.0 | 0.00 | 0.00 | 0.00 | 100 | 961.9 |
| 20260902185210 | 60 | 0 | 1.0 | 5.0 | 0.00 | 0.00 | 0.00 | 100 | 961.9 |
| 20260902185109 | 60 | 0 | 1.0 | 5.0 | 0.00 | 0.00 | 0.00 | 100 | 961.9 |
| 20260902185007 | 60 | 0 | 1.0 | 3.0 | 0.00 | 0.00 | 0.00 | 100 | 961.9 |
| 20260902184804 | 60 | 0 | 1.0 | 4.0 | 0.00 | 0.00 | 0.00 | 100 | 961.8 |
| 20260902184601 | 60 | 0 | 1.0 | 4.0 | 0.00 | 0.00 | 0.00 | 100 | 961.9 |
| 20260902184500 | 60 | 0 | 1.0 | 4.0 | 0.00 | 0.00 | 0.00 | 100 | 961.9 |
| 20260902184358 | 60 | 0 | 1.0 | 3.0 | 0.00 | 0.00 | 0.00 | 100 | 962.0 |
| 20260902184154 | 60 | 0 | 1.0 | 3.0 | 0.00 | 0.00 | 0.00 | 100 | 962.0 |
| 20260902183950 | 60 | 0 | 1.0 | 3.0 | 0.00 | 0.00 | 0.00 | 100 | 962.0 |
| 20260902183747 | 60 | 0 | 0.0 | 2.0 | 0.00 | 0.00 | 0.00 | 100 | 961.9 |
| 20260902183544 | 60 | 0 | 0.0 | 2.0 | 0.00 | 0.00 | 0.00 | 100 | 961.8 |
| 20260902183341 | 61 | 0 | 0.0 | 2.0 | 0.00 | 0.00 | 0.00 | 100 | 961.9 |
| 20260902183138 | 61 | 0 | 0.0 | 2.0 | 0.00 | 0.00 | 0.00 | 100 | 961.8 |
| 20260902182934 | 61 | 189 | 1.0 | 4.0 | 0.00 | 0.00 | 0.00 | 100 | 961.9 |
| 20260902182731 | 61 | 174 | 1.0 | 4.0 | 0.00 | 0.00 | 0.00 | 100 | 961.8 |
| 20260902182630 | 61 | 174 | 1.0 | 2.0 | 0.00 | 0.00 | 0.00 | 100 | 961.8 |
| 20260902182528 | 61 | 172 | 1.0 | 2.0 | 0.00 | 0.00 | 0.00 | 100 | 961.8 |
| 20260902182315 | 61 | 0 | 0.0 | 2.0 | 0.00 | 0.00 | 0.00 | 100 | 961.8 |
| 20260902182111 | 61 | 0 | 0.0 | 2.0 | 0.00 | 0.00 | 0.00 | 100 | 961.8 |
| 20260902182011 | 61 | 0 | 0.0 | 2.0 | 0.00 | 0.00 | 0.00 | 100 | 961.8 |
| 20260902181908 | 61 | 262 | 0.0 | 2.0 | 0.00 | 0.00 | 0.00 | 100 | 961.8 |
| 20260902181705 | 62 | 260 | 1.0 | 3.0 | 0.00 | 0.00 | 0.00 | 100 | 961.9 |
| 20260902181502 | 62 | 266 | 1.0 | 3.0 | 0.00 | 0.00 | 0.00 | 100 | 961.8 |
| 20260902181401 | 62 | 270 | 1.0 | 3.0 | 0.00 | 0.00 | 0.00 | 100 | 961.8 |
| 20260902181259 | 62 | 272 | 1.0 | 3.0 | 0.00 | 0.00 | 0.00 | 100 | 961.8 |
| 20260902181056 | 62 | 0 | 2.0 | 3.0 | 0.00 | 0.00 | 0.00 | 100 | 961.8 |
| 20260902180852 | 62 | 55 | 2.0 | 4.0 | 0.00 | 0.00 | 0.00 | 100 | 961.8 |
| 20260902180751 | 62 | 0 | 1.0 | 4.0 | 0.00 | 0.00 | 0.00 | 100 | 961.8 |
| 20260902180649 | 62 | 0 | 1.0 | 3.0 | 0.00 | 0.00 | 0.00 | 100 | 961.8 |
| 20260902180445 | 62 | 0 | 1.0 | 3.0 | 0.00 | 0.00 | 0.00 | 100 | 961.7 |
| 20260902180242 | 62 | 0 | 1.0 | 4.0 | 0.00 | 0.00 | 0.00 | 100 | 961.7 |
| 20260902180142 | 62 | 0 | 1.0 | 4.0 | 0.00 | 0.00 | 0.00 | 100 | 961.7 |
| 20260902180039 | 62 | 0 | 1.0 | 4.0 | 0.00 | 0.00 | 0.00 | 100 | 961.6 |
| 20260902175836 | 62 | 0 | 1.0 | 4.0 | 0.00 | 0.00 | 0.00 | 100 | 961.7 |
| 20260902175633 | 62 | 0 | 1.0 | 3.0 | 0.00 | 0.00 | 0.00 | 100 | 961.6 |
| 20260902175532 | 62 | 0 | 1.0 | 3.0 | 0.00 | 0.00 | 0.00 | 100 | 961.6 |
| 20260902175430 | 62 | 0 | 1.0 | 4.0 | 0.00 | 0.00 | 0.00 | 100 | 961.6 |
| 20260902175227 | 62 | 0 | 1.0 | 4.0 | 0.00 | 0.00 | 0.00 | 100 | 961.6 |
| 20260902175024 | 62 | 0 | 1.0 | 4.0 | 0.00 | 0.00 | 0.00 | 100 | 961.6 |
| 20260902174923 | 62 | 0 | 1.0 | 5.0 | 0.00 | 0.00 | 0.00 | 100 | 961.6 |
| 20260902174821 | 62 | 0 | 1.0 | 5.0 | 0.00 | 0.00 | 0.00 | 100 | 961.6 |
| 20260902174617 | 62 | 0 | 1.0 | 5.0 | 0.00 | 0.00 | 0.00 | 100 | 961.6 |
| 20260902174415 | 63 | 0 | 1.0 | 4.0 | 0.00 | 0.00 | 0.00 | 100 | 961.6 |
| 20260902174314 | 63 | 0 | 1.0 | 4.0 | 0.00 | 0.00 | 0.00 | 100 | 961.5 |
| 20260902174212 | 63 | 0 | 1.0 | 4.0 | 0.00 | 0.00 | 0.00 | 100 | 961.6 |
| 20260902174008 | 63 | 0 | 1.0 | 4.0 | 0.00 | 0.00 | 0.00 | 100 | 961.6 |
| 20260902173805 | 63 | 0 | 1.0 | 4.0 | 0.00 | 0.00 | 0.00 | 100 | 961.5 |
| 20260902173704 | 63 | 0 | 1.0 | 4.0 | 0.00 | 0.00 | 0.00 | 100 | 961.4 |
| 20260902173602 | 63 | 0 | 1.0 | 4.0 | 0.00 | 0.00 | 0.00 | 100 | 961.5 |
| 20260902173359 | 63 | 0 | 1.0 | 4.0 | 0.00 | 0.00 | 0.00 | 100 | 961.5 |
| 20260902173156 | 63 | 0 | 1.0 | 4.0 | 0.00 | 0.00 | 0.00 | 100 | 961.5 |
| 20260902173055 | 63 | 0 | 1.0 | 2.0 | 0.00 | 0.00 | 0.00 | 100 | 961.5 |
| 20260902172953 | 63 | 0 | 1.0 | 2.0 | 0.00 | 0.00 | 0.00 | 100 | 961.5 |
| 20260902172750 | 64 | 0 | 0.0 | 3.0 | 0.00 | 0.00 | 0.00 | 100 | 961.5 |
| 20260902172548 | 64 | 0 | 1.0 | 3.0 | 0.00 | 0.00 | 0.00 | 100 | 961.5 |
| 20260902172342 | 64 | 0 | 0.0 | 3.0 | 0.00 | 0.00 | 0.00 | 100 | 961.5 |
| 20260902172140 | 64 | 0 | 0.0 | 3.0 | 0.00 | 0.00 | 0.00 | 100 | 961.4 |
| 20260902171937 | 64 | 0 | 0.0 | 2.0 | 0.00 | 0.00 | 0.00 | 100 | 961.5 |
| 20260902171836 | 64 | 0 | 0.0 | 2.0 | 0.00 | 0.00 | 0.00 | 100 | 961.4 |
| 20260902171734 | 64 | 0 | 0.0 | 2.0 | 0.00 | 0.00 | 0.00 | 100 | 961.5 |
| 20260902171531 | 64 | 0 | 1.0 | 3.0 | 0.00 | 0.00 | 0.00 | 100 | 961.3 |
| 20260902171327 | 64 | 0 | 1.0 | 3.0 | 0.00 | 0.00 | 0.00 | 100 | 961.5 |
| 20260902171227 | 64 | 0 | 0.0 | 2.0 | 0.00 | 0.00 | 0.00 | 100 | 961.4 |
| 20260902171125 | 64 | 0 | 0.0 | 2.0 | 0.00 | 0.00 | 0.00 | 100 | 961.4 |
| 20260902170922 | 64 | 0 | 1.0 | 2.0 | 0.00 | 0.00 | 0.00 | 100 | 961.4 |
| 20260902170720 | 65 | 0 | 1.0 | 2.0 | 0.00 | 0.00 | 0.00 | 100 | 961.4 |
| 20260902170618 | 65 | 0 | 1.0 | 2.0 | 0.00 | 0.00 | 0.00 | 100 | 961.4 |
| 20260902170516 | 65 | 0 | 0.0 | 2.0 | 0.00 | 0.00 | 0.00 | 100 | 961.4 |
| 20260902170312 | 65 | 0 | 0.0 | 2.0 | 0.00 | 0.00 | 0.00 | 100 | 961.4 |
| 20260902170110 | 65 | 0 | 0.0 | 2.0 | 0.00 | 0.00 | 0.00 | 100 | 961.3 |
| 20260902170009 | 66 | 0 | 0.0 | 2.0 | 0.00 | 0.00 | 0.00 | 100 | 961.4 |
| 20260902165907 | 66 | 0 | 0.0 | 2.0 | 0.00 | 0.00 | 0.00 | 100 | 961.4 |
| 20260902165703 | 66 | 0 | 0.0 | 2.0 | 0.00 | 0.00 | 0.00 | 100 | 961.5 |
| 20260902165500 | 66 | 0 | 0.0 | 3.0 | 0.00 | 0.00 | 0.00 | 100 | 961.4 |
| 20260902165359 | 66 | 0 | 1.0 | 3.0 | 0.00 | 0.00 | 0.00 | 100 | 961.3 |
| 20260902165257 | 66 | 0 | 1.0 | 3.0 | 0.00 | 0.00 | 0.00 | 100 | 961.4 |
| 20260902165055 | 66 | 0 | 1.0 | 3.0 | 0.00 | 0.00 | 0.00 | 100 | 961.4 |
| 20260902164852 | 66 | 0 | 0.0 | 3.0 | 0.00 | 0.00 | 0.00 | 100 | 961.3 |
| 20260902164751 | 66 | 0 | 0.0 | 3.0 | 0.00 | 0.00 | 0.00 | 100 | 961.3 |
| 20260902164649 | 66 | 0 | 0.0 | 3.0 | 0.00 | 0.00 | 0.00 | 100 | 961.4 |
| 20260902164445 | 67 | 0 | 0.0 | 2.0 | 0.00 | 0.00 | 0.00 | 100 | 961.4 |
| 20260902164242 | 67 | 0 | 0.0 | 1.0 | 0.00 | 0.00 | 0.00 | 100 | 961.4 |
| 20260902164141 | 67 | 0 | 0.0 | 1.0 | 0.00 | 0.00 | 0.00 | 100 | 961.4 |
| 20260902164038 | 67 | 0 | 0.0 | 1.0 | 0.00 | 0.00 | 0.00 | 100 | 961.3 |
| 20260902163836 | 67 | 0 | 0.0 | 2.0 | 0.00 | 0.00 | 0.00 | 100 | 961.3 |
| 20260902163633 | 67 | 278 | 1.0 | 2.0 | 0.00 | 0.00 | 0.00 | 100 | 961.4 |
| 20260902163532 | 67 | 284 | 1.0 | 2.0 | 0.00 | 0.00 | 0.00 | 100 | 961.3 |
| 20260902163429 | 67 | 291 | 1.0 | 2.0 | 0.00 | 0.00 | 0.00 | 100 | 961.4 |
| 20260902163227 | 68 | 0 | 0.0 | 2.0 | 0.00 | 0.00 | 0.00 | 100 | 961.4 |
| 20260902163024 | 68 | 0 | 0.0 | 2.0 | 0.00 | 0.00 | 0.00 | 100 | 961.4 |
| 20260902162923 | 68 | 0 | 0.0 | 2.0 | 0.00 | 0.00 | 0.00 | 100 | 961.4 |
| 20260902162821 | 68 | 0 | 0.0 | 1.0 | 0.00 | 0.00 | 0.00 | 100 | 961.3 |
| 20260902162617 | 68 | 0 | 0.0 | 2.0 | 0.00 | 0.00 | 0.00 | 100 | 961.3 |
| 20260902162414 | 68 | 0 | 0.0 | 2.0 | 0.00 | 0.00 | 0.00 | 100 | 961.2 |
| 20260902162313 | 68 | 0 | 0.0 | 2.0 | 0.00 | 0.00 | 0.00 | 100 | 961.3 |
| 20260902162210 | 68 | 0 | 0.0 | 2.0 | 0.00 | 0.00 | 0.00 | 100 | 961.3 |
| 20260902162007 | 68 | 0 | 0.0 | 2.0 | 0.00 | 0.00 | 0.00 | 100 | 961.2 |
| 20260902161804 | 68 | 0 | 0.0 | 2.0 | 0.00 | 0.00 | 0.00 | 100 | 961.4 |
| 20260902161601 | 68 | 0 | 0.0 | 2.0 | 0.00 | 0.00 | 0.00 | 100 | 961.4 |
| 20260902161358 | 68 | 0 | 0.0 | 2.0 | 0.00 | 0.00 | 0.00 | 100 | 961.4 |
| 20260902161155 | 68 | 0 | 1.0 | 3.0 | 0.00 | 0.00 | 0.00 | 100 | 961.3 |
| 20260902161054 | 68 | 0 | 0.0 | 3.0 | 0.00 | 0.00 | 0.00 | 100 | 961.3 |
| 20260902160951 | 69 | 0 | 0.0 | 3.0 | 0.00 | 0.00 | 0.00 | 100 | 961.3 |
| 20260902160748 | 69 | 0 | 0.0 | 2.0 | 0.00 | 0.00 | 0.00 | 100 | 961.2 |
| 20260902160545 | 69 | 189 | 1.0 | 4.0 | 0.00 | 0.00 | 0.00 | 100 | 961.4 |
| 20260902160342 | 68 | 183 | 1.0 | 4.0 | 0.00 | 0.00 | 0.00 | 100 | 961.3 |
| 20260902160140 | 69 | 0 | 1.0 | 3.0 | 0.00 | 0.00 | 0.00 | 100 | 961.3 |
| 20260902155936 | 69 | 0 | 0.0 | 3.0 | 0.00 | 0.00 | 0.00 | 100 | 961.4 |
| 20260902155835 | 69 | 0 | 0.0 | 3.0 | 0.00 | 0.00 | 0.00 | 100 | 961.4 |
| 20260902155733 | 69 | 0 | 1.0 | 5.0 | 0.00 | 0.00 | 0.00 | 100 | 961.4 |
| 20260902155530 | 69 | 188 | 1.0 | 5.0 | 0.00 | 0.00 | 0.00 | 100 | 961.4 |
| 20260902155327 | 69 | 183 | 1.0 | 5.0 | 0.00 | 0.00 | 0.00 | 100 | 961.4 |
| 20260902155227 | 68 | 188 | 1.0 | 4.0 | 0.00 | 0.00 | 0.00 | 100 | 961.5 |
| 20260902155124 | 68 | 192 | 1.0 | 4.0 | 0.00 | 0.00 | 0.00 | 100 | 961.5 |
| 20260902154921 | 68 | 201 | 1.0 | 4.0 | 0.00 | 0.00 | 0.00 | 100 | 961.5 |
| 20260902154718 | 68 | 191 | 1.0 | 4.0 | 0.00 | 0.00 | 0.00 | 100 | 961.4 |
| 20260902154619 | 68 | 180 | 2.0 | 4.0 | 0.00 | 0.00 | 0.00 | 100 | 961.4 |
| 20260902154503 | 68 | 177 | 2.0 | 4.0 | 0.00 | 0.00 | 0.00 | 100 | 961.5 |
| 20260902154300 | 68 | 173 | 2.0 | 4.0 | 0.00 | 0.00 | 0.00 | 100 | 961.5 |
| 20260902154056 | 68 | 163 | 4.0 | 6.0 | 0.00 | 0.00 | 0.00 | 100 | 961.5 |
| 20260902153955 | 68 | 163 | 4.0 | 7.0 | 0.00 | 0.00 | 0.00 | 100 | 961.5 |
| 20260902153853 | 68 | 162 | 4.0 | 7.0 | 0.00 | 0.00 | 0.00 | 100 | 961.5 |
| 20260902153650 | 68 | 163 | 4.0 | 7.0 | 0.00 | 0.00 | 0.00 | 100 | 961.5 |
| 20260902153447 | 68 | 161 | 4.0 | 9.0 | 0.00 | 0.00 | 0.00 | 100 | 961.6 |
| 20260902153347 | 68 | 162 | 5.0 | 9.0 | 0.00 | 0.00 | 0.00 | 100 | 961.5 |
| 20260902153243 | 68 | 163 | 6.0 | 9.0 | 0.00 | 0.00 | 0.00 | 100 | 961.4 |
| 20260902153040 | 69 | 165 | 6.0 | 9.0 | 0.00 | 0.00 | 0.00 | 100 | 961.6 |
| 20260902152836 | 69 | 165 | 6.0 | 10.0 | 0.00 | 0.00 | 0.00 | 100 | 961.6 |
| 20260902152634 | 69 | 160 | 5.0 | 10.0 | 0.00 | 0.00 | 0.00 | 100 | 961.5 |
| 20260902152431 | 69 | 155 | 5.0 | 8.0 | 0.00 | 0.00 | 0.00 | 100 | 961.5 |
| 20260902152228 | 69 | 156 | 4.0 | 8.0 | 0.00 | 0.00 | 0.00 | 100 | 961.5 |
| 20260902152127 | 69 | 158 | 4.0 | 7.0 | 0.00 | 0.00 | 0.00 | 100 | 961.5 |
| 20260902152025 | 69 | 156 | 4.0 | 8.0 | 0.00 | 0.00 | 0.00 | 100 | 961.4 |
| 20260902151821 | 69 | 150 | 5.0 | 8.0 | 0.00 | 0.00 | 0.00 | 100 | 961.5 |
| 20260902151618 | 69 | 148 | 4.0 | 8.0 | 0.00 | 0.00 | 0.00 | 100 | 961.5 |
| 20260902151518 | 69 | 145 | 4.0 | 8.0 | 0.00 | 0.00 | 0.00 | 100 | 961.6 |
| 20260902151416 | 69 | 140 | 4.0 | 8.0 | 0.00 | 0.00 | 0.00 | 100 | 961.6 |
| 20260902151212 | 70 | 138 | 4.0 | 8.0 | 0.00 | 0.00 | 0.00 | 100 | 961.5 |
| 20260902151009 | 70 | 141 | 3.0 | 6.0 | 0.00 | 0.00 | 0.00 | 100 | 961.6 |
| 20260902150909 | 70 | 134 | 3.0 | 6.0 | 0.00 | 0.00 | 0.00 | 100 | 961.6 |
| 20260902150806 | 70 | 138 | 4.0 | 6.0 | 0.00 | 0.00 | 0.00 | 100 | 961.6 |
| 20260902150604 | 70 | 125 | 3.0 | 6.0 | 0.00 | 0.00 | 0.00 | 100 | 961.6 |
| 20260902150400 | 71 | 78 | 2.0 | 6.0 | 0.00 | 0.00 | 0.00 | 100 | 961.6 |
| 20260902150300 | 71 | 316 | 2.0 | 5.0 | 0.00 | 0.00 | 0.00 | 100 | 961.5 |
| 20260902150157 | 71 | 300 | 2.0 | 4.0 | 0.00 | 0.00 | 0.00 | 100 | 961.5 |
| 20260902145954 | 71 | 280 | 2.0 | 4.0 | 0.00 | 0.00 | 0.00 | 100 | 961.6 |
| 20260902145752 | 71 | 294 | 3.0 | 7.0 | 0.00 | 0.00 | 0.00 | 100 | 961.6 |
| 20260902145652 | 71 | 308 | 4.0 | 7.0 | 0.00 | 0.00 | 0.00 | 100 | 961.6 |
| 20260902145549 | 71 | 321 | 4.0 | 7.0 | 0.00 | 0.00 | 0.00 | 100 | 961.6 |
| 20260902145345 | 72 | 346 | 2.0 | 4.0 | 0.00 | 0.00 | 0.00 | 100 | 961.6 |
| 20260902145142 | 72 | 5 | 2.0 | 4.0 | 0.00 | 0.00 | 0.00 | 100 | 961.6 |
| 20260902144939 | 71 | 359 | 2.0 | 4.0 | 0.00 | 0.00 | 0.00 | 100 | 961.6 |
| 20260902144736 | 71 | 339 | 2.0 | 5.0 | 0.00 | 0.00 | 0.00 | 100 | 961.8 |
| 20260902144532 | 72 | 303 | 2.0 | 5.0 | 0.00 | 0.00 | 0.00 | 100 | 961.9 |
| 20260902144432 | 72 | 255 | 1.0 | 4.0 | 0.00 | 0.00 | 0.00 | 100 | 961.8 |
| 20260902144330 | 72 | 265 | 1.0 | 4.0 | 0.00 | 0.00 | 0.00 | 100 | 961.8 |
| 20260902144127 | 71 | 291 | 2.0 | 4.0 | 0.00 | 0.00 | 0.00 | 100 | 961.7 |
| 20260902143923 | 70 | 327 | 3.0 | 4.0 | 0.00 | 0.00 | 0.00 | 100 | 961.7 |
| 20260902143826 | 70 | 332 | 2.0 | 4.0 | 0.00 | 0.00 | 0.00 | 100 | 961.7 |
| 20260902143720 | 70 | 342 | 1.0 | 4.0 | 0.00 | 0.00 | 0.00 | 100 | 961.7 |
| 20260902143517 | 71 | 0 | 1.0 | 3.0 | 0.00 | 0.00 | 0.00 | 100 | 961.7 |
| 20260902143314 | 71 | 299 | 2.0 | 6.0 | 0.00 | 0.00 | 0.00 | 100 | 961.7 |
| 20260902143213 | 71 | 306 | 3.0 | 6.0 | 0.00 | 0.00 | 0.00 | 100 | 961.7 |
| 20260902143110 | 70 | 310 | 4.0 | 8.0 | 0.00 | 0.00 | 0.00 | 100 | 961.7 |
| 20260902142907 | 70 | 308 | 5.0 | 8.0 | 0.00 | 0.00 | 0.00 | 100 | 961.8 |
| 20260902142705 | 71 | 287 | 5.0 | 9.0 | 0.00 | 0.00 | 0.00 | 100 | 961.8 |
| 20260902142605 | 71 | 291 | 4.0 | 9.0 | 0.00 | 0.00 | 0.00 | 100 | 961.8 |
| 20260902142500 | 71 | 295 | 3.0 | 9.0 | 0.00 | 0.00 | 0.00 | 100 | 961.8 |
| 20260902142257 | 71 | 310 | 2.0 | 7.0 | 0.00 | 0.00 | 0.00 | 100 | 961.8 |
| 20260902142054 | 70 | 291 | 4.0 | 8.0 | 0.00 | 0.00 | 0.00 | 100 | 961.8 |
| 20260902141851 | 71 | 288 | 4.0 | 8.0 | 0.00 | 0.00 | 0.00 | 100 | 961.7 |
| 20260902141648 | 71 | 293 | 3.0 | 8.0 | 0.00 | 0.00 | 0.00 | 100 | 961.9 |
| 20260902141445 | 71 | 283 | 2.0 | 5.0 | 0.00 | 0.00 | 0.00 | 100 | 961.8 |
| 20260902141344 | 71 | 296 | 1.0 | 5.0 | 0.00 | 0.00 | 0.00 | 100 | 961.8 |
| 20260902141241 | 71 | 290 | 0.0 | 4.0 | 0.00 | 0.00 | 0.00 | 100 | 961.9 |
| 20260902141038 | 70 | 279 | 3.0 | 6.0 | 0.00 | 0.00 | 0.00 | 100 | 962.0 |
| 20260902140836 | 69 | 283 | 4.0 | 6.0 | 0.00 | 0.00 | 0.00 | 100 | 962.0 |
| 20260902140735 | 69 | 288 | 4.0 | 5.0 | 0.00 | 0.00 | 0.00 | 100 | 961.9 |
| 20260902140633 | 69 | 290 | 4.0 | 7.0 | 0.00 | 0.00 | 0.00 | 100 | 962.0 |
| 20260902140429 | 69 | 297 | 4.0 | 7.0 | 0.00 | 0.00 | 0.00 | 100 | 961.9 |
| 20260902140226 | 70 | 305 | 3.0 | 6.0 | 0.00 | 0.00 | 0.00 | 100 | 962.0 |
| 20260902140125 | 70 | 304 | 3.0 | 6.0 | 0.00 | 0.00 | 0.00 | 100 | 961.9 |
| 20260902140023 | 70 | 303 | 3.0 | 6.0 | 0.00 | 0.00 | 0.00 | 100 | 962.0 |
| 20260902135819 | 70 | 300 | 3.0 | 6.0 | 0.00 | 0.00 | 0.00 | 100 | 962.0 |
| 20260902135616 | 70 | 278 | 3.0 | 6.0 | 0.00 | 0.00 | 0.00 | 100 | 962.0 |
| 20260902135413 | 70 | 269 | 2.0 | 6.0 | 0.00 | 0.00 | 0.00 | 100 | 962.0 |
| 20260902135209 | 71 | 263 | 2.0 | 6.0 | 0.00 | 0.00 | 0.00 | 100 | 962.0 |
| 20260902135007 | 71 | 253 | 2.0 | 5.0 | 0.00 | 0.00 | 0.00 | 100 | 962.0 |
| 20260902134906 | 71 | 248 | 2.0 | 5.0 | 0.00 | 0.00 | 0.00 | 100 | 962.0 |
| 20260902134803 | 71 | 237 | 1.0 | 5.0 | 0.00 | 0.00 | 0.00 | 100 | 962.0 |
| 20260902134600 | 72 | 0 | 1.0 | 3.0 | 0.00 | 0.00 | 0.00 | 100 | 962.0 |
| 20260902134357 | 72 | 242 | 1.0 | 4.0 | 0.00 | 0.00 | 0.00 | 100 | 962.0 |
| 20260902134153 | 71 | 240 | 1.0 | 4.0 | 0.00 | 0.00 | 0.00 | 100 | 962.0 |
| 20260902133950 | 71 | 0 | 1.0 | 3.0 | 0.00 | 0.00 | 0.00 | 100 | 962.0 |
| 20260902133747 | 71 | 0 | 1.0 | 4.0 | 0.00 | 0.00 | 0.00 | 100 | 962.1 |
| 20260902133647 | 71 | 263 | 2.0 | 6.0 | 0.00 | 0.00 | 0.00 | 100 | 962.0 |
| 20260902133544 | 70 | 271 | 3.0 | 8.0 | 0.00 | 0.00 | 0.00 | 100 | 962.0 |
| 20260902133340 | 69 | 270 | 4.0 | 8.0 | 0.00 | 0.00 | 0.00 | 100 | 962.0 |
| 20260902133137 | 70 | 255 | 3.0 | 7.0 | 0.00 | 0.00 | 0.00 | 100 | 962.0 |
| 20260902133036 | 70 | 248 | 3.0 | 7.0 | 0.00 | 0.00 | 0.00 | 100 | 961.9 |
| 20260902132934 | 70 | 250 | 3.0 | 7.0 | 0.00 | 0.00 | 0.00 | 100 | 962.0 |
| 20260902132731 | 70 | 247 | 2.0 | 9.0 | 0.00 | 0.00 | 0.00 | 100 | 962.0 |
| 20260902132528 | 70 | 247 | 2.0 | 9.0 | 0.00 | 0.00 | 0.00 | 100 | 962.0 |
| 20260902132427 | 70 | 229 | 2.0 | 9.0 | 0.00 | 0.00 | 0.00 | 100 | 962.0 |
| 20260902132325 | 70 | 0 | 1.0 | 4.0 | 0.00 | 0.00 | 0.00 | 100 | 961.9 |
| 20260902132122 | 70 | 219 | 1.0 | 4.0 | 0.00 | 0.00 | 0.00 | 100 | 962.0 |
| 20260902131918 | 70 | 0 | 1.0 | 2.0 | 0.00 | 0.00 | 0.00 | 100 | 962.0 |
| 20260902131817 | 70 | 0 | 1.0 | 2.0 | 0.00 | 0.00 | 0.00 | 100 | 962.0 |
| 20260902131715 | 70 | 0 | 1.0 | 4.0 | 0.00 | 0.00 | 0.00 | 100 | 962.0 |
| 20260902131511 | 70 | 0 | 1.0 | 5.0 | 0.00 | 0.00 | 0.00 | 100 | 962.0 |
| 20260902131309 | 70 | 0 | 1.0 | 5.0 | 0.00 | 0.00 | 0.00 | 100 | 962.0 |
| 20260902131208 | 70 | 0 | 1.0 | 6.0 | 0.00 | 0.00 | 0.00 | 100 | 962.1 |
| 20260902131105 | 70 | 0 | 1.0 | 6.0 | 0.00 | 0.00 | 0.00 | 100 | 962.1 |
| 20260902130902 | 70 | 234 | 2.0 | 6.0 | 0.00 | 0.00 | 0.00 | 100 | 962.0 |
| 20260902130658 | 70 | 237 | 1.0 | 6.0 | 0.00 | 0.00 | 0.00 | 100 | 962.1 |
| 20260902130544 | 70 | 250 | 2.0 | 6.0 | 0.00 | 0.00 | 0.00 | 100 | 961.9 |
| 20260902130442 | 70 | 253 | 2.0 | 6.0 | 0.00 | 0.00 | 0.00 | 100 | 962.1 |
| 20260902130240 | 70 | 281 | 3.0 | 6.0 | 0.00 | 0.00 | 0.00 | 100 | 962.0 |
| 20260902130037 | 70 | 298 | 5.0 | 8.0 | 0.00 | 0.00 | 0.00 | 100 | 962.0 |
| 20260902125936 | 69 | 298 | 5.0 | 10.0 | 0.00 | 0.00 | 0.00 | 100 | 962.0 |
| 20260902125834 | 70 | 300 | 4.0 | 10.0 | 0.00 | 0.00 | 0.00 | 100 | 961.9 |
| 20260902125630 | 70 | 264 | 5.0 | 11.0 | 0.00 | 0.00 | 0.00 | 100 | 962.1 |
| 20260902125427 | 70 | 254 | 6.0 | 11.0 | 0.00 | 0.00 | 0.00 | 100 | 962.1 |
| 20260902125326 | 70 | 253 | 6.0 | 10.0 | 0.00 | 0.00 | 0.00 | 100 | 962.1 |
| 20260902125223 | 70 | 249 | 5.0 | 10.0 | 0.00 | 0.00 | 0.00 | 100 | 962.1 |
| 20260902125020 | 70 | 261 | 6.0 | 12.0 | 0.00 | 0.00 | 0.00 | 100 | 962.1 |
| 20260902124817 | 70 | 267 | 6.0 | 12.0 | 0.00 | 0.00 | 0.00 | 100 | 962.0 |
| 20260902124717 | 70 | 266 | 5.0 | 12.0 | 0.00 | 0.00 | 0.00 | 100 | 962.1 |
| 20260902124614 | 70 | 259 | 4.0 | 10.0 | 0.00 | 0.00 | 0.00 | 100 | 962.1 |
| 20260902124411 | 71 | 230 | 2.0 | 8.0 | 0.00 | 0.00 | 0.00 | 100 | 962.1 |
| 20260902124207 | 71 | 226 | 2.0 | 8.0 | 0.00 | 0.00 | 0.00 | 100 | 962.0 |
| 20260902124005 | 71 | 225 | 2.0 | 8.0 | 0.00 | 0.00 | 0.00 | 100 | 962.0 |
| 20260902123802 | 71 | 229 | 2.0 | 8.0 | 0.00 | 0.00 | 0.00 | 100 | 962.1 |
| 20260902123559 | 71 | 239 | 2.0 | 8.0 | 0.00 | 0.00 | 0.00 | 100 | 962.1 |
| 20260902123458 | 71 | 239 | 2.0 | 8.0 | 0.00 | 0.00 | 0.00 | 100 | 962.1 |
| 20260902123355 | 71 | 241 | 2.0 | 7.0 | 0.00 | 0.00 | 0.00 | 100 | 962.1 |
| 20260902123152 | 71 | 238 | 2.0 | 6.0 | 0.00 | 0.00 | 0.00 | 100 | 962.2 |
| 20260902122949 | 72 | 236 | 2.0 | 6.0 | 0.00 | 0.00 | 0.00 | 100 | 962.1 |
| 20260902122848 | 72 | 233 | 1.0 | 6.0 | 0.00 | 0.00 | 0.00 | 100 | 962.1 |
| 20260902122746 | 72 | 240 | 1.0 | 6.0 | 0.00 | 0.00 | 0.00 | 100 | 962.2 |
| 20260902122543 | 72 | 231 | 2.0 | 6.0 | 0.00 | 0.00 | 0.00 | 100 | 962.1 |
| 20260902122340 | 73 | 233 | 2.0 | 9.0 | 0.00 | 0.00 | 0.00 | 100 | 962.1 |
| 20260902122239 | 73 | 244 | 2.0 | 9.0 | 0.00 | 0.00 | 0.00 | 100 | 962.1 |
| 20260902122137 | 73 | 0 | 2.0 | 9.0 | 0.00 | 0.00 | 0.00 | 100 | 962.0 |
| 20260902121933 | 73 | 0 | 2.0 | 6.0 | 0.00 | 0.00 | 0.00 | 100 | 962.1 |
| 20260902121730 | 73 | 241 | 2.0 | 7.0 | 0.00 | 0.00 | 0.00 | 100 | 962.1 |
| 20260902121630 | 73 | 236 | 2.0 | 7.0 | 0.00 | 0.00 | 0.00 | 100 | 962.1 |
| 20260902121527 | 73 | 243 | 2.0 | 7.0 | 0.00 | 0.00 | 0.00 | 100 | 962.2 |
| 20260902121324 | 73 | 230 | 2.0 | 7.0 | 0.00 | 0.00 | 0.00 | 100 | 962.1 |
| 20260902121121 | 73 | 225 | 2.0 | 8.0 | 0.00 | 0.00 | 0.00 | 100 | 962.2 |
| 20260902120918 | 73 | 243 | 2.0 | 8.0 | 0.00 | 0.00 | 0.00 | 100 | 962.2 |
| 20260902120715 | 73 | 262 | 2.0 | 6.0 | 0.00 | 0.00 | 0.00 | 100 | 962.2 |
| 20260902120512 | 73 | 232 | 2.0 | 6.0 | 0.00 | 0.00 | 0.00 | 100 | 962.3 |
| 20260902120411 | 74 | 227 | 2.0 | 6.0 | 0.00 | 0.00 | 0.00 | 100 | 962.3 |
| 20260902120309 | 74 | 201 | 2.0 | 8.0 | 0.00 | 0.00 | 0.00 | 100 | 962.2 |
| 20260902120105 | 73 | 185 | 2.0 | 8.0 | 0.00 | 0.00 | 0.00 | 100 | 962.3 |
| 20260902115902 | 73 | 187 | 2.0 | 8.0 | 0.00 | 0.00 | 0.00 | 100 | 962.2 |
| 20260902115802 | 74 | 237 | 2.0 | 6.0 | 0.00 | 0.00 | 0.00 | 100 | 962.4 |
| 20260902115700 | 74 | 243 | 2.0 | 7.0 | 0.00 | 0.00 | 0.00 | 100 | 962.3 |
| 20260902115456 | 73 | 210 | 3.0 | 9.0 | 0.00 | 0.00 | 0.00 | 100 | 962.4 |
| 20260902115253 | 72 | 172 | 3.0 | 9.0 | 0.00 | 0.00 | 0.00 | 100 | 962.4 |
| 20260902115152 | 72 | 174 | 3.0 | 11.0 | 0.00 | 0.00 | 0.00 | 100 | 962.3 |
| 20260902115050 | 73 | 183 | 3.0 | 11.0 | 0.00 | 0.00 | 0.00 | 100 | 962.4 |
| 20260902114847 | 73 | 198 | 2.0 | 11.0 | 0.00 | 0.00 | 0.00 | 100 | 962.4 |
| 20260902114643 | 73 | 222 | 2.0 | 9.0 | 0.00 | 0.00 | 0.00 | 100 | 962.5 |
| 20260902114543 | 73 | 230 | 2.0 | 9.0 | 0.00 | 0.00 | 0.00 | 100 | 962.4 |
| 20260902114441 | 73 | 224 | 2.0 | 9.0 | 0.00 | 0.00 | 0.00 | 100 | 962.4 |
| 20260902114237 | 73 | 228 | 2.0 | 9.0 | 0.00 | 0.00 | 0.00 | 100 | 962.5 |
| 20260902114035 | 73 | 218 | 2.0 | 9.0 | 0.00 | 0.00 | 0.00 | 100 | 962.6 |
| 20260902113934 | 73 | 215 | 2.0 | 8.0 | 0.00 | 0.00 | 0.00 | 100 | 962.5 |
| 20260902113832 | 73 | 0 | 1.0 | 5.0 | 0.00 | 0.00 | 0.00 | 100 | 962.5 |
| 20260902113629 | 73 | 0 | 1.0 | 9.0 | 0.00 | 0.00 | 0.00 | 100 | 962.6 |
| 20260902113426 | 73 | 213 | 2.0 | 9.0 | 0.00 | 0.00 | 0.00 | 100 | 962.6 |
| 20260902113326 | 73 | 219 | 2.0 | 9.0 | 0.00 | 0.00 | 0.00 | 100 | 962.6 |
| 20260902113224 | 72 | 221 | 2.0 | 8.0 | 0.00 | 0.00 | 0.00 | 100 | 962.5 |
| 20260902113020 | 72 | 233 | 2.0 | 8.0 | 0.00 | 0.00 | 0.00 | 100 | 962.6 |
| 20260902112818 | 71 | 235 | 2.0 | 7.0 | 0.00 | 0.00 | 0.00 | 100 | 962.6 |
| 20260902112717 | 71 | 243 | 1.0 | 7.0 | 0.00 | 0.00 | 0.00 | 100 | 962.6 |
| 20260902112614 | 71 | 0 | 1.0 | 6.0 | 0.00 | 0.00 | 0.00 | 100 | 962.6 |
| 20260902112411 | 70 | 0 | 1.0 | 6.0 | 0.00 | 0.00 | 0.00 | 100 | 962.6 |
| 20260902112208 | 69 | 224 | 2.0 | 6.0 | 0.00 | 0.00 | 0.00 | 100 | 962.6 |
| 20260902112005 | 70 | 0 | 1.0 | 6.0 | 0.00 | 0.00 | 0.00 | 100 | 962.6 |
| 20260902111802 | 70 | 0 | 1.0 | 6.0 | 0.00 | 0.00 | 0.00 | 100 | 962.6 |
| 20260902111559 | 71 | 0 | 1.0 | 10.0 | 0.00 | 0.00 | 0.00 | 100 | 962.8 |
| 20260902111458 | 71 | 0 | 2.0 | 13.0 | 0.00 | 0.00 | 0.00 | 100 | 962.8 |
| 20260902111357 | 71 | 188 | 3.0 | 13.0 | 0.00 | 0.00 | 0.00 | 100 | 962.7 |
| 20260902111154 | 71 | 182 | 3.0 | 13.0 | 0.00 | 0.00 | 0.00 | 100 | 962.6 |
| 20260902110951 | 72 | 175 | 3.0 | 12.0 | 0.00 | 0.00 | 0.00 | 100 | 962.6 |
| 20260902110851 | 72 | 172 | 3.0 | 12.0 | 0.00 | 0.00 | 0.00 | 100 | 962.7 |
| 20260902110748 | 71 | 179 | 3.0 | 12.0 | 0.00 | 0.00 | 0.00 | 100 | 962.6 |
| 20260902110544 | 71 | 199 | 2.0 | 11.0 | 0.00 | 0.00 | 0.00 | 100 | 962.8 |
| 20260902110341 | 71 | 210 | 2.0 | 11.0 | 0.00 | 0.00 | 0.00 | 100 | 962.7 |
| 20260902110240 | 71 | 196 | 2.0 | 11.0 | 0.00 | 0.00 | 0.00 | 100 | 962.7 |
| 20260902110138 | 71 | 201 | 2.0 | 7.0 | 0.00 | 0.00 | 0.00 | 100 | 962.7 |
| 20260902105935 | 71 | 213 | 2.0 | 8.0 | 0.00 | 0.00 | 0.00 | 100 | 962.8 |
| 20260902105732 | 71 | 174 | 3.0 | 12.0 | 0.00 | 0.00 | 0.00 | 100 | 962.7 |
| 20260902105630 | 71 | 174 | 3.0 | 12.0 | 0.00 | 0.00 | 0.00 | 100 | 962.7 |
| 20260902105528 | 70 | 173 | 3.0 | 12.0 | 0.00 | 0.00 | 0.00 | 100 | 962.7 |
| 20260902105326 | 70 | 193 | 1.0 | 8.0 | 0.00 | 0.00 | 0.00 | 100 | 962.7 |
| 20260902105123 | 69 | 0 | 1.0 | 4.0 | 0.00 | 0.00 | 0.00 | 100 | 962.7 |
| 20260902105023 | 69 | 0 | 1.0 | 4.0 | 0.00 | 0.00 | 0.00 | 100 | 962.7 |
| 20260902104920 | 68 | 0 | 1.0 | 4.0 | 0.00 | 0.00 | 0.00 | 100 | 962.8 |
| 20260902104717 | 68 | 0 | 1.0 | 5.0 | 0.00 | 0.00 | 0.00 | 100 | 962.9 |
| 20260902104515 | 67 | 224 | 2.0 | 6.0 | 0.00 | 0.00 | 0.00 | 100 | 962.9 |
| 20260902104414 | 67 | 232 | 2.0 | 6.0 | 0.00 | 0.00 | 0.00 | 100 | 962.9 |
| 20260902104313 | 67 | 242 | 2.0 | 6.0 | 0.00 | 0.00 | 0.00 | 100 | 962.9 |
| 20260902104109 | 67 | 263 | 2.0 | 6.0 | 0.00 | 0.00 | 0.00 | 100 | 962.9 |
| 20260902103906 | 67 | 267 | 3.0 | 7.0 | 0.00 | 0.00 | 0.00 | 100 | 962.8 |
| 20260902103510 | 67 | 284 | 4.0 | 7.0 | 0.00 | 0.00 | 0.00 | 100 | 962.9 |
| 20260902103410 | 67 | 285 | 4.0 | 8.0 | 0.00 | 0.00 | 0.00 | 100 | 962.9 |
| 20260902103307 | 66 | 285 | 4.0 | 8.0 | 0.00 | 0.00 | 0.00 | 100 | 962.9 |
| 20260902103104 | 67 | 283 | 6.0 | 9.0 | 0.00 | 0.00 | 0.00 | 100 | 962.9 |
| 20260902102901 | 67 | 261 | 5.0 | 9.0 | 0.00 | 0.00 | 0.00 | 100 | 962.9 |
| 20260902102800 | 67 | 255 | 4.0 | 9.0 | 0.00 | 0.00 | 0.00 | 100 | 962.9 |
| 20260902102654 | 67 | 258 | 4.0 | 9.0 | 0.00 | 0.00 | 0.00 | 100 | 962.9 |
| 20260902102451 | 67 | 254 | 4.0 | 9.0 | 0.00 | 0.00 | 0.00 | 100 | 962.9 |
| 20260902102248 | 67 | 253 | 4.0 | 12.0 | 0.00 | 0.00 | 0.00 | 100 | 962.8 |
| 20260902102032 | 67 | 261 | 6.0 | 14.0 | 0.00 | 0.00 | 0.00 | 100 | 962.8 |
| 20260902101829 | 68 | 263 | 7.0 | 14.0 | 0.00 | 0.00 | 0.00 | 100 | 962.9 |
| 20260902101626 | 68 | 259 | 5.0 | 13.0 | 0.00 | 0.00 | 0.00 | 100 | 962.9 |
| 20260902101525 | 68 | 257 | 5.0 | 13.0 | 0.00 | 0.00 | 0.00 | 100 | 962.8 |
| 20260902101422 | 69 | 244 | 3.0 | 11.0 | 0.00 | 0.00 | 0.00 | 100 | 962.9 |
| 20260902101219 | 71 | 219 | 2.0 | 7.0 | 0.00 | 0.00 | 0.00 | 100 | 962.9 |
| 20260902101017 | 71 | 217 | 1.0 | 5.0 | 0.00 | 0.00 | 0.00 | 100 | 962.9 |
| 20260902100916 | 71 | 180 | 2.0 | 6.0 | 0.00 | 0.00 | 0.00 | 100 | 962.9 |
| 20260902100813 | 72 | 146 | 3.0 | 7.0 | 0.00 | 0.00 | 0.00 | 100 | 962.9 |
| 20260902100610 | 71 | 143 | 3.0 | 7.0 | 0.00 | 0.00 | 0.00 | 100 | 962.9 |
| 20260902100407 | 72 | 185 | 2.0 | 7.0 | 0.00 | 0.00 | 0.00 | 100 | 963.0 |
| 20260902100306 | 73 | 206 | 2.0 | 7.0 | 0.00 | 0.00 | 0.00 | 100 | 963.0 |
| 20260902100204 | 72 | 212 | 2.0 | 7.0 | 0.00 | 0.00 | 0.00 | 100 | 962.9 |
| 20260902100001 | 72 | 233 | 2.0 | 7.0 | 0.00 | 0.00 | 0.00 | 100 | 963.0 |
| 20260902095758 | 72 | 222 | 2.0 | 6.0 | 0.00 | 0.00 | 0.00 | 100 | 963.1 |
| 20260902095657 | 72 | 212 | 2.0 | 7.0 | 0.00 | 0.00 | 0.00 | 100 | 963.0 |
| 20260902095555 | 72 | 205 | 2.0 | 7.0 | 0.00 | 0.00 | 0.00 | 100 | 963.1 |
| 20260902095351 | 71 | 199 | 2.0 | 7.0 | 0.00 | 0.00 | 0.00 | 100 | 963.0 |
| 20260902095149 | 72 | 0 | 2.0 | 6.0 | 0.00 | 0.00 | 0.00 | 100 | 963.0 |
| 20260902094945 | 71 | 222 | 2.0 | 9.0 | 0.00 | 0.00 | 0.00 | 100 | 963.1 |
| 20260902094742 | 71 | 226 | 2.0 | 9.0 | 0.00 | 0.00 | 0.00 | 100 | 963.1 |
| 20260902094539 | 71 | 217 | 2.0 | 6.0 | 0.00 | 0.00 | 0.00 | 100 | 963.0 |
| 20260902094438 | 72 | 232 | 2.0 | 6.0 | 0.00 | 0.00 | 0.00 | 100 | 963.2 |
| 20260902094336 | 72 | 200 | 2.0 | 11.0 | 0.00 | 0.00 | 0.00 | 100 | 963.2 |
| 20260902094133 | 71 | 202 | 2.0 | 11.0 | 0.00 | 0.00 | 0.00 | 100 | 963.2 |
| 20260902093929 | 71 | 0 | 2.0 | 6.0 | 0.00 | 0.00 | 0.00 | 100 | 963.1 |
| 20260902093829 | 71 | 0 | 1.0 | 6.0 | 0.00 | 0.00 | 0.00 | 100 | 963.2 |
| 20260902093727 | 71 | 0 | 1.0 | 6.0 | 0.00 | 0.00 | 0.00 | 100 | 963.3 |
| 20260902093523 | 70 | 0 | 1.0 | 5.0 | 0.00 | 0.00 | 0.00 | 100 | 963.3 |
| 20260902093320 | 70 | 225 | 2.0 | 8.0 | 0.00 | 0.00 | 0.00 | 100 | 963.1 |
| 20260902093219 | 70 | 218 | 2.0 | 8.0 | 0.00 | 0.00 | 0.00 | 100 | 963.2 |
| 20260902093116 | 70 | 217 | 2.0 | 8.0 | 0.00 | 0.00 | 0.00 | 100 | 963.2 |
| 20260902092914 | 70 | 222 | 2.0 | 7.0 | 0.00 | 0.00 | 0.00 | 100 | 963.2 |
| 20260902092711 | 70 | 225 | 1.0 | 6.0 | 0.00 | 0.00 | 0.00 | 100 | 963.3 |
| 20260902092611 | 70 | 227 | 1.0 | 6.0 | 0.00 | 0.00 | 0.00 | 100 | 963.3 |
| 20260902092505 | 70 | 230 | 2.0 | 6.0 | 0.00 | 0.00 | 0.00 | 100 | 963.2 |
| 20260902092305 | 70 | 234 | 2.0 | 9.0 | 0.00 | 0.00 | 0.00 | 100 | 963.2 |
| 20260902092059 | 70 | 229 | 2.0 | 9.0 | 0.00 | 0.00 | 0.00 | 100 | 963.3 |
| 20260902091959 | 70 | 233 | 2.0 | 6.0 | 0.00 | 0.00 | 0.00 | 100 | 963.3 |
| 20260902091856 | 70 | 0 | 2.0 | 6.0 | 0.00 | 0.00 | 0.00 | 100 | 963.2 |
| 20260902091652 | 70 | 0 | 1.0 | 6.0 | 0.00 | 0.00 | 0.00 | 100 | 963.2 |
| 20260902091450 | 70 | 0 | 2.0 | 6.0 | 0.00 | 0.00 | 0.00 | 100 | 963.3 |
| 20260902091349 | 69 | 227 | 2.0 | 6.0 | 0.00 | 0.00 | 0.00 | 100 | 963.3 |
| 20260902091247 | 69 | 222 | 2.0 | 8.0 | 0.00 | 0.00 | 0.00 | 100 | 963.3 |
| 20260902091044 | 69 | 245 | 4.0 | 11.0 | 0.00 | 0.00 | 0.00 | 100 | 963.3 |
| 20260902090841 | 68 | 237 | 5.0 | 14.0 | 0.00 | 0.00 | 0.00 | 100 | 963.3 |
| 20260902090638 | 68 | 161 | 4.0 | 14.0 | 0.00 | 0.00 | 0.00 | 100 | 963.2 |
| 20260902090435 | 68 | 91 | 2.0 | 5.0 | 0.00 | 0.00 | 0.00 | 100 | 963.4 |
| 20260902090232 | 67 | 23 | 2.0 | 5.0 | 0.00 | 0.00 | 0.00 | 100 | 963.3 |
| 20260902090131 | 66 | 13 | 2.0 | 3.0 | 0.00 | 0.00 | 0.00 | 100 | 963.4 |
| 20260902090029 | 67 | 15 | 1.0 | 4.0 | 0.00 | 0.00 | 0.00 | 100 | 963.4 |
| 20260902085827 | 67 | 56 | 1.0 | 3.0 | 0.00 | 0.00 | 0.00 | 100 | 963.4 |
| 20260902085623 | 65 | 39 | 2.0 | 6.0 | 0.00 | 0.00 | 0.00 | 100 | 963.3 |
| 20260902085523 | 64 | 39 | 3.0 | 7.0 | 0.00 | 0.00 | 0.00 | 100 | 963.4 |
| 20260902085421 | 64 | 40 | 3.0 | 7.0 | 0.00 | 0.00 | 0.00 | 100 | 963.4 |
| 20260902085217 | 65 | 28 | 3.0 | 7.0 | 0.00 | 0.00 | 0.00 | 100 | 963.4 |
| 20260902085014 | 65 | 1 | 2.0 | 4.0 | 0.00 | 0.00 | 0.00 | 100 | 963.3 |
| 20260902084914 | 65 | 355 | 2.0 | 4.0 | 0.00 | 0.00 | 0.00 | 100 | 963.3 |
| 20260902084811 | 65 | 357 | 2.0 | 3.0 | 0.00 | 0.00 | 0.00 | 100 | 963.4 |
| 20260902084608 | 64 | 351 | 2.0 | 3.0 | 0.00 | 0.00 | 0.00 | 100 | 963.3 |
| 20260902084404 | 64 | 352 | 3.0 | 5.0 | 0.00 | 0.00 | 0.00 | 100 | 963.3 |
| 20260902084201 | 64 | 0 | 3.0 | 6.0 | 0.00 | 0.00 | 0.00 | 100 | 963.4 |
| 20260902083957 | 64 | 10 | 2.0 | 6.0 | 0.00 | 0.00 | 0.00 | 100 | 963.3 |
| 20260902083754 | 63 | 6 | 3.0 | 6.0 | 0.00 | 0.00 | 0.00 | 100 | 963.4 |
| 20260902083654 | 63 | 2 | 3.0 | 6.0 | 0.00 | 0.00 | 0.00 | 100 | 963.3 |
| 20260902083551 | 62 | 359 | 4.0 | 6.0 | 0.00 | 0.00 | 0.00 | 100 | 963.4 |
| 20260902083348 | 62 | 4 | 4.0 | 6.0 | 0.00 | 0.00 | 0.00 | 100 | 963.4 |
| 20260902083145 | 63 | 9 | 3.0 | 6.0 | 0.00 | 0.00 | 0.00 | 100 | 963.3 |
| 20260902083044 | 62 | 16 | 4.0 | 6.0 | 0.00 | 0.00 | 0.00 | 100 | 963.4 |
| 20260902082941 | 62 | 8 | 4.0 | 6.0 | 0.00 | 0.00 | 0.00 | 100 | 963.4 |
| 20260902082738 | 62 | 3 | 4.0 | 6.0 | 0.00 | 0.00 | 0.00 | 100 | 963.4 |
| 20260902082535 | 62 | 356 | 3.0 | 5.0 | 0.00 | 0.00 | 0.00 | 100 | 963.3 |
| 20260902082435 | 62 | 349 | 2.0 | 5.0 | 0.00 | 0.00 | 0.00 | 100 | 963.3 |
| 20260902082329 | 62 | 350 | 2.0 | 4.0 | 0.00 | 0.00 | 0.00 | 100 | 963.5 |
| 20260902082126 | 62 | 2 | 2.0 | 4.0 | 0.00 | 0.00 | 0.00 | 100 | 963.4 |
| 20260902081923 | 62 | 7 | 3.0 | 5.0 | 0.00 | 0.00 | 0.00 | 100 | 963.4 |
| 20260902081720 | 62 | 46 | 2.0 | 5.0 | 0.00 | 0.00 | 0.00 | 100 | 963.3 |
| 20260902081517 | 62 | 94 | 2.0 | 4.0 | 0.00 | 0.00 | 0.00 | 100 | 963.3 |
| 20260902081313 | 62 | 112 | 2.0 | 4.0 | 0.00 | 0.00 | 0.00 | 100 | 963.3 |
| 20260902081213 | 62 | 120 | 1.0 | 3.0 | 0.00 | 0.00 | 0.00 | 100 | 963.3 |
| 20260902081110 | 61 | 0 | 1.0 | 3.0 | 0.00 | 0.00 | 0.00 | 100 | 963.3 |
| 20260902080907 | 60 | 359 | 2.0 | 5.0 | 0.00 | 0.00 | 0.00 | 100 | 963.4 |
| 20260902080704 | 60 | 355 | 3.0 | 5.0 | 0.00 | 0.00 | 0.00 | 100 | 963.3 |
| 20260902080602 | 60 | 1 | 3.0 | 5.0 | 0.00 | 0.00 | 0.00 | 100 | 963.3 |
| 20260902080500 | 60 | 1 | 3.0 | 4.0 | 0.00 | 0.00 | 0.00 | 100 | 963.3 |
| 20260902080257 | 60 | 357 | 3.0 | 6.0 | 0.00 | 0.00 | 0.00 | 100 | 963.3 |
| 20260902080054 | 59 | 0 | 3.0 | 6.0 | 0.00 | 0.00 | 0.00 | 100 | 963.3 |
| 20260902075953 | 59 | 355 | 3.0 | 6.0 | 0.00 | 0.00 | 0.00 | 100 | 963.4 |
| 20260902075851 | 59 | 350 | 3.0 | 5.0 | 0.00 | 0.00 | 0.00 | 100 | 963.2 |
| 20260902075648 | 59 | 344 | 3.0 | 5.0 | 0.00 | 0.00 | 0.00 | 100 | 963.4 |
| 20260902075445 | 59 | 357 | 3.0 | 4.0 | 0.00 | 0.00 | 0.00 | 100 | 963.3 |
| 20260902075344 | 59 | 2 | 3.0 | 4.0 | 0.00 | 0.00 | 0.00 | 100 | 963.3 |
| 20260902075241 | 59 | 1 | 3.0 | 4.0 | 0.00 | 0.00 | 0.00 | 100 | 963.3 |
| 20260902075038 | 59 | 359 | 2.0 | 4.0 | 0.00 | 0.00 | 0.00 | 100 | 963.3 |
| 20260902074836 | 59 | 3 | 2.0 | 4.0 | 0.00 | 0.00 | 0.00 | 100 | 963.2 |
| 20260902074735 | 59 | 5 | 2.0 | 4.0 | 0.00 | 0.00 | 0.00 | 100 | 963.2 |
| 20260902074633 | 59 | 0 | 2.0 | 4.0 | 0.00 | 0.00 | 0.00 | 100 | 963.3 |
| 20260902074430 | 59 | 4 | 2.0 | 4.0 | 0.00 | 0.00 | 0.00 | 100 | 963.3 |
| 20260902074214 | 59 | 7 | 2.0 | 4.0 | 0.00 | 0.00 | 0.00 | 100 | 963.3 |
| 20260902074010 | 59 | 352 | 2.0 | 4.0 | 0.00 | 0.00 | 0.00 | 100 | 963.3 |
| 20260902073807 | 59 | 350 | 2.0 | 4.0 | 0.00 | 0.00 | 0.00 | 100 | 963.3 |
| 20260902073604 | 59 | 0 | 2.0 | 3.0 | 0.00 | 0.00 | 0.00 | 100 | 963.2 |
| 20260902073503 | 59 | 0 | 2.0 | 3.0 | 0.00 | 0.00 | 0.00 | 100 | 963.3 |
| 20260902073401 | 59 | 1 | 1.0 | 3.0 | 0.00 | 0.00 | 0.00 | 100 | 963.3 |
| 20260902073158 | 59 | 3 | 1.0 | 3.0 | 0.00 | 0.00 | 0.00 | 100 | 963.3 |
| 20260902072955 | 58 | 24 | 1.0 | 3.0 | 0.00 | 0.00 | 0.00 | 100 | 963.2 |
| 20260902072855 | 58 | 56 | 1.0 | 3.0 | 0.00 | 0.00 | 0.00 | 100 | 963.3 |
| 20260902072752 | 58 | 68 | 1.0 | 3.0 | 0.00 | 0.00 | 0.00 | 100 | 963.3 |
| 20260902072549 | 58 | 49 | 1.0 | 3.0 | 0.00 | 0.00 | 0.00 | 100 | 963.3 |
| 20260902072346 | 57 | 3 | 2.0 | 3.0 | 0.00 | 0.00 | 0.00 | 100 | 963.1 |
| 20260902072244 | 57 | 350 | 2.0 | 3.0 | 0.00 | 0.00 | 0.00 | 100 | 963.1 |
| 20260902072139 | 57 | 341 | 2.0 | 3.0 | 0.00 | 0.00 | 0.00 | 100 | 963.1 |
| 20260902071936 | 57 | 350 | 2.0 | 2.0 | 0.00 | 0.00 | 0.00 | 100 | 963.2 |
| 20260902071733 | 57 | 356 | 2.0 | 2.0 | 0.00 | 0.00 | 0.00 | 100 | 963.1 |
| 20260902071529 | 57 | 348 | 2.0 | 3.0 | 0.00 | 0.00 | 0.00 | 100 | 963.2 |
| 20260902071326 | 57 | 0 | 1.0 | 3.0 | 0.00 | 0.00 | 0.00 | 100 | 963.2 |
| 20260902071123 | 57 | 2 | 2.0 | 3.0 | 0.00 | 0.00 | 0.00 | 100 | 963.3 |
| 20260902071022 | 57 | 4 | 2.0 | 3.0 | 0.00 | 0.00 | 0.00 | 100 | 963.3 |
| 20260902070920 | 57 | 2 | 2.0 | 3.0 | 0.00 | 0.00 | 0.00 | 100 | 963.2 |
| 20260902070716 | 57 | 343 | 1.0 | 3.0 | 0.00 | 0.00 | 0.00 | 100 | 963.2 |
| 20260902070512 | 58 | 0 | 0.0 | 2.0 | 0.00 | 0.00 | 0.00 | 100 | 963.2 |
| 20260902070412 | 59 | 0 | 0.0 | 2.0 | 0.00 | 0.00 | 0.00 | 100 | 963.2 |
| 20260902070310 | 59 | 0 | 0.0 | 2.0 | 0.00 | 0.00 | 0.00 | 100 | 963.2 |
| 20260902070106 | 58 | 0 | 0.0 | 2.0 | 0.00 | 0.00 | 0.00 | 100 | 963.3 |
| 20260902065903 | 57 | 0 | 0.0 | 2.0 | 0.00 | 0.00 | 0.00 | 100 | 963.2 |
| 20260902065803 | 56 | 0 | 0.0 | 2.0 | 0.00 | 0.00 | 0.00 | 100 | 963.2 |
| 20260902065700 | 56 | 0 | 0.0 | 2.0 | 0.00 | 0.00 | 0.00 | 100 | 963.2 |
| 20260902065458 | 55 | 328 | 1.0 | 2.0 | 0.00 | 0.00 | 0.00 | 100 | 963.2 |
| 20260902065254 | 55 | 352 | 1.0 | 2.0 | 0.00 | 0.00 | 0.00 | 100 | 963.2 |
| 20260902065153 | 55 | 2 | 1.0 | 2.0 | 0.00 | 0.00 | 0.00 | 100 | 963.3 |
| 20260902065051 | 55 | 21 | 1.0 | 2.0 | 0.00 | 0.00 | 0.00 | 100 | 963.3 |
| 20260902064847 | 55 | 8 | 1.0 | 3.0 | 0.00 | 0.00 | 0.00 | 100 | 963.3 |
| 20260902064643 | 54 | 359 | 2.0 | 3.0 | 0.00 | 0.00 | 0.00 | 100 | 963.2 |
| 20260902064543 | 54 | 341 | 2.0 | 3.0 | 0.00 | 0.00 | 0.00 | 100 | 963.3 |
| 20260902064440 | 54 | 324 | 2.0 | 4.0 | 0.00 | 0.00 | 0.00 | 100 | 963.2 |
| 20260902064237 | 54 | 321 | 2.0 | 4.0 | 0.00 | 0.00 | 0.00 | 100 | 963.2 |
| 20260902064034 | 53 | 345 | 3.0 | 3.0 | 0.00 | 0.00 | 0.00 | 100 | 963.1 |
| 20260902063934 | 53 | 346 | 3.0 | 3.0 | 0.00 | 0.00 | 0.00 | 100 | 963.1 |
| 20260902063831 | 53 | 345 | 3.0 | 4.0 | 0.00 | 0.00 | 0.00 | 100 | 963.2 |
| 20260902063628 | 53 | 342 | 2.0 | 4.0 | 0.00 | 0.00 | 0.00 | 100 | 963.2 |
| 20260902063425 | 53 | 350 | 2.0 | 4.0 | 0.00 | 0.00 | 0.00 | 100 | 963.3 |
| 20260902063324 | 53 | 355 | 2.0 | 4.0 | 0.00 | 0.00 | 0.00 | 100 | 963.1 |
| 20260902063222 | 53 | 359 | 2.0 | 4.0 | 0.00 | 0.00 | 0.00 | 100 | 963.2 |
| 20260902063019 | 53 | 359 | 2.0 | 4.0 | 0.00 | 0.00 | 0.00 | 100 | 963.1 |
| 20260902062816 | 53 | 351 | 2.0 | 3.0 | 0.00 | 0.00 | 0.00 | 100 | 963.2 |
| 20260902062715 | 53 | 356 | 2.0 | 3.0 | 0.00 | 0.00 | 0.00 | 100 | 963.2 |
| 20260902062613 | 53 | 4 | 2.0 | 3.0 | 0.00 | 0.00 | 0.00 | 100 | 963.2 |
| 20260902062410 | 53 | 37 | 1.0 | 3.0 | 0.00 | 0.00 | 0.00 | 100 | 963.2 |
| 20260902062206 | 54 | 102 | 1.0 | 3.0 | 0.00 | 0.00 | 0.00 | 100 | 963.2 |
| 20260902062105 | 54 | 116 | 1.0 | 3.0 | 0.00 | 0.00 | 0.00 | 100 | 963.3 |
| 20260902061959 | 54 | 114 | 1.0 | 3.0 | 0.00 | 0.00 | 0.00 | 100 | 963.2 |
| 20260902061756 | 54 | 87 | 1.0 | 3.0 | 0.00 | 0.00 | 0.00 | 100 | 963.2 |
| 20260902061552 | 53 | 82 | 1.0 | 2.0 | 0.00 | 0.00 | 0.00 | 100 | 963.2 |
| 20260902061452 | 53 | 75 | 1.0 | 2.0 | 0.00 | 0.00 | 0.00 | 100 | 963.2 |
| 20260902061350 | 53 | 62 | 0.0 | 2.0 | 0.00 | 0.00 | 0.00 | 100 | 963.1 |
| 20260902061147 | 53 | 0 | 0.0 | 1.0 | 0.00 | 0.00 | 0.00 | 100 | 963.1 |
| 20260902060943 | 53 | 329 | 1.0 | 1.0 | 0.00 | 0.00 | 0.00 | 100 | 963.1 |
| 20260902060842 | 53 | 331 | 1.0 | 1.0 | 0.00 | 0.00 | 0.00 | 100 | 963.2 |
| 20260902060739 | 52 | 0 | 0.0 | 1.0 | 0.00 | 0.00 | 0.00 | 100 | 963.2 |
| 20260902060536 | 52 | 6 | 1.0 | 1.0 | 0.00 | 0.00 | 0.00 | 100 | 963.2 |
| 20260902060333 | 52 | 0 | 1.0 | 2.0 | 0.00 | 0.00 | 0.00 | 100 | 963.2 |
| 20260902060233 | 52 | 356 | 1.0 | 2.0 | 0.00 | 0.00 | 0.00 | 100 | 963.2 |
| 20260902060131 | 52 | 356 | 1.0 | 2.0 | 0.00 | 0.00 | 0.00 | 100 | 963.2 |
| 20260902055927 | 52 | 349 | 1.0 | 3.0 | 0.00 | 0.00 | 0.00 | 100 | 963.3 |
| 20260902055724 | 52 | 355 | 1.0 | 3.0 | 0.00 | 0.00 | 0.00 | 100 | 963.2 |
| 20260902055623 | 51 | 352 | 1.0 | 2.0 | 0.00 | 0.00 | 0.00 | 100 | 963.2 |
| 20260902055520 | 51 | 354 | 1.0 | 2.0 | 0.00 | 0.00 | 0.00 | 100 | 963.3 |
| 20260902055318 | 51 | 333 | 1.0 | 2.0 | 0.00 | 0.00 | 0.00 | 100 | 963.2 |
| 20260902055114 | 51 | 317 | 1.0 | 2.0 | 0.00 | 0.00 | 0.00 | 100 | 963.2 |
| 20260902055014 | 51 | 324 | 1.0 | 2.0 | 0.00 | 0.00 | 0.00 | 100 | 963.2 |
| 20260902054911 | 51 | 328 | 1.0 | 2.0 | 0.00 | 0.00 | 0.00 | 100 | 963.3 |
| 20260902054709 | 51 | 334 | 1.0 | 2.0 | 0.00 | 0.00 | 0.00 | 100 | 963.2 |
| 20260902054506 | 51 | 352 | 1.0 | 2.0 | 0.00 | 0.00 | 0.00 | 100 | 963.3 |
| 20260902054405 | 51 | 353 | 1.0 | 2.0 | 0.00 | 0.00 | 0.00 | 100 | 963.3 |
| 20260902054302 | 51 | 354 | 1.0 | 2.0 | 0.00 | 0.00 | 0.00 | 100 | 963.3 |
| 20260902054059 | 51 | 359 | 2.0 | 2.0 | 0.00 | 0.00 | 0.00 | 100 | 963.3 |
| 20260902053855 | 51 | 357 | 1.0 | 2.0 | 0.00 | 0.00 | 0.00 | 100 | 963.3 |
| 20260902053755 | 51 | 358 | 2.0 | 2.0 | 0.00 | 0.00 | 0.00 | 100 | 963.2 |
| 20260902053652 | 50 | 359 | 2.0 | 3.0 | 0.00 | 0.00 | 0.00 | 100 | 963.2 |
| 20260902053449 | 50 | 1 | 2.0 | 3.0 | 0.00 | 0.00 | 0.00 | 100 | 963.2 |
| 20260902053246 | 50 | 4 | 2.0 | 3.0 | 0.00 | 0.00 | 0.00 | 100 | 963.2 |
| 20260902053145 | 50 | 6 | 2.0 | 3.0 | 0.00 | 0.00 | 0.00 | 100 | 963.3 |
| 20260902053043 | 50 | 5 | 2.0 | 4.0 | 0.00 | 0.00 | 0.00 | 100 | 963.2 |
| 20260902052840 | 50 | 356 | 2.0 | 4.0 | 0.00 | 0.00 | 0.00 | 100 | 963.2 |
| 20260902052636 | 50 | 342 | 2.0 | 3.0 | 0.00 | 0.00 | 0.00 | 100 | 963.2 |
| 20260902052535 | 50 | 340 | 2.0 | 3.0 | 0.00 | 0.00 | 0.00 | 100 | 963.1 |
| 20260902052433 | 51 | 344 | 2.0 | 3.0 | 0.00 | 0.00 | 0.00 | 100 | 963.1 |